GFSFLT1_prec_cthk_000.txt.gz
RH
21 19 19 18 16 16 14 14 14 21 16 16 13 14 16 19 22 27 24 19 14 13 11 11 12 11 10 10 10 9 8 8 8
22 20 20 18 17 16 13 12 12 14 14 14 15 14 16 19 22 26 21 14 13 13 12 12 12 12 11 11 11 10 10 9 9
22 21 21 21 18 15 12 10 11 12 13 14 14 13 16 19 22 22 21 14 14 13 13 13 13 13 12 12 12 12 12 12 12
22 21 22 20 19 17 13 12 11 11 13 14 13 13 15 17 20 20 18 15 15 14 14 14 13 14 14 13 13 14 14 13 14
20 20 21 20 21 18 16 13 12 11 12 13 13 12 13 15 16 20 20 17 15 15 16 15 14 14 14 14 14 15 15 15 16
19 19 16 19 19 18 17 13 12 12 13 13 12 12 13 15 16 20 19 18 17 16 16 15 15 15 15 15 15 16 17 17 18
20 18 17 18 17 17 18 16 14 14 15 14 14 14 14 15 18 19 20 19 18 17 17 17 16 16 16 16 16 17 18 18 19
17 17 16 18 16 18 19 17 16 17 17 17 17 15 15 17 18 20 20 20 20 19 19 18 18 17 17 17 18 18 19 19 20
14 15 16 17 17 20 19 20 18 19 19 20 20 20 20 21 21 21 21 22 21 21 21 20 20 19 19 19 19 19 19 19 19
17 17 20 20 19 20 23 23 21 22 20 20 21 21 22 23 23 23 23 23 23 22 22 21 20 20 20 20 20 20 20 20 20
19 18 20 21 21 21 22 22 22 21 21 21 21 21 22 22 23 24 24 25 25 25 25 23 23 22 22 22 22 22 21 22 22
20 20 21 23 22 21 22 23 25 26 25 23 23 23 22 22 22 24 25 26 27 27 27 26 25 25 24 23 24 24 24 24 25
21 20 20 21 22 23 24 24 25 26 26 26 26 26 25 24 24 25 24 26 28 28 28 28 26 26 28 28 27 26 26 26 28
20 20 21 22 23 24 25 26 28 28 30 31 30 28 27 27 27 27 27 27 28 29 29 30 29 28 30 34 35 33 28 28 30
20 19 21 23 23 22 23 26 30 32 32 34 35 34 32 31 32 30 30 30 31 31 31 30 31 29 30 32 36 38 31 33 34
20 21 21 23 24 24 24 28 31 33 36 40 39 39 38 36 36 36 35 33 34 34 33 31 33 31 34 34 39 43 43 39 36
23 23 24 24 25 26 26 29 32 37 41 42 46 44 39 36 37 37 37 36 40 40 42 41 39 36 35 38 43 52 50 49 50
30 29 29 29 28 27 31 36 39 41 43 45 48 48 42 39 39 40 42 43 46 50 49 45 42 42 42 49 51 61 59 60 56
27 26 28 33 35 37 38 40 38 41 41 45 46 47 47 51 50 48 50 55 59 56 54 51 48 49 50 55 59 62 61 64 60
35 32 34 35 38 40 41 41 42 44 48 46 47 49 53 53 60 58 58 61 60 62 62 60 60 54 54 60 62 62 64 64 64

GFSFLT1_prec_cthk_003.txt.gz
RH
21 17 17 15 13 12 11 11 10 15 17 18 12 13 15 16 18 22 18 13 13 12 11 11 12 11 10 9 8 8 7 7 7
22 19 17 15 14 11 10 10 10 10 12 12 12 14 15 16 18 19 17 12 13 12 11 12 12 12 11 10 10 9 9 8 8
19 19 17 18 15 14 13 11 11 12 11 11 12 13 15 16 18 19 18 13 13 13 12 13 13 13 13 12 11 11 11 11 11
13 18 18 22 18 18 16 15 13 12 11 12 13 12 15 15 18 19 18 15 15 15 14 14 14 14 14 14 13 13 13 13 13
12 15 20 21 20 21 20 17 16 14 13 13 14 13 14 15 16 16 17 17 16 17 16 15 15 15 15 14 14 14 14 14 15
12 15 15 16 18 19 19 19 17 17 16 16 15 15 15 16 18 19 20 21 20 20 20 19 18 18 17 16 15 15 15 15 16
15 14 14 14 14 17 18 19 17 17 17 18 18 18 17 18 20 20 22 23 22 22 23 23 22 21 20 19 18 16 16 16 16
14 14 13 13 16 15 16 17 17 16 17 18 19 18 18 19 20 20 22 24 24 24 24 25 25 24 22 22 22 20 18 17 17
17 16 15 14 15 16 15 16 16 16 17 18 19 19 18 18 19 20 20 22 24 25 25 26 27 27 25 24 22 23 22 20 18
20 20 19 16 14 16 17 16 17 17 16 18 20 20 20 20 19 20 21 21 23 24 25 26 27 28 28 27 25 24 26 25 22
21 22 19 16 14 14 17 18 19 19 20 19 21 21 21 21 21 21 21 22 23 24 25 26 27 28 29 29 29 26 25 26 27
20 20 20 18 18 16 17 17 19 22 23 22 22 22 22 21 23 23 23 23 23 23 25 25 27 28 29 29 30 31 29 29 31
27 24 19 21 21 21 21 21 20 20 22 23 24 24 25 24 25 25 25 26 26 25 25 25 26 28 30 30 32 35 32 30 32
26 27 26 23 24 24 24 23 22 20 22 25 27 28 28 28 30 28 27 28 28 28 27 27 28 30 31 34 35 36 37 34 37
29 30 31 29 29 29 30 29 29 28 27 29 30 31 34 36 34 33 32 32 33 33 33 34 34 33 34 37 35 36 38 40 40
34 36 35 32 31 30 31 32 30 28 30 35 35 40 40 37 36 36 35 37 39 41 41 41 40 43 43 40 38 37 38 39 39
37 38 34 33 33 32 30 33 33 31 35 43 48 44 39 36 36 37 39 41 43 42 45 49 51 49 48 47 45 42 40 40 41
41 42 41 40 38 37 36 41 46 46 45 48 52 50 46 41 39 39 43 45 45 48 53 53 52 54 52 48 46 45 46 46 50
42 44 46 46 46 45 46 47 49 51 52 53 51 54 55 55 49 44 49 52 50 53 56 56 55 55 54 52 51 49 52 54 58
44 45 47 49 51 53 54 55 55 55 56 54 54 57 62 62 59 55 49 52 55 56 58 58 60 60 57 58 63 59 56 60 64

GFSFLT1_prec_cthk_006.txt.gz
RH
20 18 16 15 13 12 12 13 12 12 13 17 13 12 15 17 19 19 19 17 13 13 12 11 11 11 10 10 9 9 7 6 6
18 18 17 15 16 13 11 11 12 12 12 12 11 12 15 15 16 18 18 15 14 15 14 13 13 13 12 12 11 10 9 8 8
16 16 16 17 19 15 13 13 13 14 14 13 12 13 15 16 16 17 17 15 15 16 17 16 16 16 16 15 14 13 12 11 10
12 14 18 21 21 18 17 16 16 15 16 15 15 15 16 17 18 19 20 21 19 20 20 19 18 17 17 17 17 16 15 13 12
11 14 15 15 20 19 19 19 17 17 17 17 18 18 18 19 20 21 21 21 21 22 22 22 22 21 20 19 19 18 18 16 15
11 13 14 14 13 14 16 18 17 17 16 16 17 18 18 19 20 20 20 21 22 22 23 24 24 24 23 22 22 21 20 19 19
12 14 15 13 12 11 13 14 16 16 16 16 17 18 18 18 18 20 20 21 22 23 23 24 25 26 26 25 24 24 24 21 20
16 17 16 16 14 13 12 13 15 16 16 15 16 18 19 19 19 20 20 21 22 23 23 23 24 25 27 27 27 27 27 26 24
20 21 21 19 18 16 15 13 15 17 17 16 16 18 19 20 20 20 20 21 22 23 23 23 23 25 26 27 28 29 29 29 29
22 22 22 21 20 18 16 15 15 16 18 19 18 19 21 21 22 21 20 20 21 23 24 25 25 25 25 26 26 28 30 31 31
28 28 25 21 22 22 20 18 18 17 17 19 21 22 23 23 23 22 21 20 21 24 24 25 25 27 27 28 27 28 30 32 34
27 27 29 29 27 26 27 27 25 24 23 21 22 22 22 22 22 23 22 22 24 25 25 26 27 27 29 31 32 34 33 33 35
29 29 29 31 32 31 27 28 29 28 27 26 26 26 25 26 26 26 27 29 29 28 28 28 28 29 30 32 35 38 39 42 39
32 31 31 33 34 35 33 31 32 32 31 31 31 30 30 30 31 31 33 36 34 32 32 32 33 34 34 35 38 41 44 46 45
33 33 34 37 39 38 36 35 36 36 36 37 36 35 33 33 32 35 40 39 37 37 38 39 41 42 42 44 45 45 44 43 44
40 40 40 41 43 43 40 40 39 36 37 42 37 36 35 35 36 39 42 41 42 43 44 45 45 45 50 51 53 50 47 45 43
42 42 43 44 44 44 44 44 44 43 43 46 50 48 42 38 38 39 41 39 41 42 46 49 47 50 51 52 53 55 55 51 48
45 45 45 45 46 47 49 51 52 53 52 52 58 60 57 53 47 46 49 50 49 48 47 48 52 52 54 54 53 57 56 52 51
43 44 45 45 47 48 50 54 55 57 57 59 56 57 61 62 57 49 52 57 56 54 55 57 54 55 59 59 60 61 59 56 53
41 42 43 44 46 45 51 53 56 56 54 56 58 58 58 61 64 63 59 64 62 64 65 65 63 63 64 62 62 64 65 62 64

GFSFLT1_prec_cthk_012.txt.gz
RH
21 22 19 18 17 15 14 17 15 15 17 20 23 22 17 15 16 16 20 22 22 21 17 18 18 17 16 15 15 14 14 13 12
21 18 18 16 15 15 15 16 14 14 16 17 17 20 20 18 19 19 20 23 22 22 19 19 19 19 19 17 17 17 16 16 15
19 16 14 14 14 14 16 17 16 15 15 15 16 17 18 18 20 21 21 23 22 26 22 19 19 19 20 20 19 18 18 18 17
14 16 14 14 15 20 21 20 18 18 17 16 16 16 17 17 19 20 20 22 23 23 27 19 19 19 20 21 21 21 21 20 20
12 12 13 14 17 22 20 20 18 16 17 17 16 16 16 17 18 19 20 21 23 22 28 24 19 19 19 20 22 23 23 23 23
13 13 14 15 17 18 18 24 19 17 16 16 16 15 15 15 17 18 19 21 22 23 27 29 27 21 20 20 20 22 24 24 25
18 19 20 21 21 22 22 22 22 21 20 18 17 16 14 15 16 18 19 20 22 23 24 29 30 28 22 21 20 21 23 25 26
23 23 24 24 24 25 25 26 25 24 22 21 19 18 17 15 15 16 18 20 21 21 22 26 30 31 29 24 23 23 23 25 26
28 29 30 30 30 30 30 30 30 29 29 26 24 22 19 18 16 16 18 19 19 20 21 23 30 31 32 29 28 25 25 27 27
31 31 31 31 32 33 34 33 32 31 31 31 29 28 27 25 22 20 18 18 20 21 21 21 23 28 30 36 31 29 29 29 30
28 28 29 30 32 32 32 33 33 32 32 31 32 33 33 32 31 28 25 24 21 21 22 22 22 22 28 34 38 38 37 34 33
25 26 28 31 34 35 34 33 34 35 35 33 33 33 33 32 32 30 28 28 29 28 26 25 24 24 25 29 32 40 47 53 53
36 35 35 36 38 39 39 40 40 40 41 41 41 38 36 34 33 33 33 31 29 30 32 33 31 29 28 31 38 40 40 42 46
40 42 42 43 44 45 47 47 50 49 49 49 47 46 43 40 38 35 33 34 34 32 30 34 38 40 43 44 44 45 46 46 47
46 48 49 51 51 51 52 52 54 54 53 53 51 53 51 49 47 48 47 46 43 43 43 43 42 46 49 51 51 50 49 50 51
50 51 52 52 50 48 48 49 48 47 49 50 45 45 44 45 45 46 44 44 45 45 46 48 47 44 43 44 43 45 48 50 53
43 42 42 41 40 40 41 44 46 47 49 51 52 50 48 46 48 49 49 51 50 50 49 48 50 53 51 49 48 50 49 50 51
37 37 37 38 39 39 41 43 45 49 49 52 56 55 53 54 52 51 50 53 54 60 63 63 58 58 60 59 58 59 63 64 62
37 38 38 36 33 32 32 33 34 36 38 42 48 53 57 59 53 54 58 60 58 62 67 69 73 73 69 68 67 68 69 70 72
31 29 28 29 29 29 29 29 30 31 31 33 35 38 41 46 54 48 46 49 52 53 58 62 73 82 87 89 84 80 77 78 78

GFSFLT1_prec_cthk_015.txt.gz
RH
20 16 16 16 17 16 15 15 15 17 19 20 24 25 26 23 18 18 19 21 23 22 27 24 20 19 19 18 16 15 15 14 13
19 16 16 16 16 16 15 14 14 15 17 18 21 22 24 26 20 20 20 20 23 23 26 21 19 19 19 19 19 17 16 16 15
19 17 16 15 15 16 17 18 16 16 16 16 23 24 20 24 18 19 20 20 22 22 27 25 19 19 20 20 20 19 18 18 18
17 16 16 17 17 21 21 22 22 22 20 17 16 16 16 17 17 18 20 21 22 24 25 27 28 25 20 20 20 20 19 18 19
16 16 17 19 17 20 23 23 23 23 23 22 18 18 17 16 15 16 17 19 21 22 24 26 27 28 24 21 21 21 21 20 20
19 18 18 18 19 20 23 26 26 26 26 20 20 19 18 16 15 14 16 17 19 20 21 27 28 28 28 25 23 22 22 21 21
23 23 24 25 25 25 25 25 26 25 25 24 24 22 20 18 16 14 14 16 16 17 18 20 26 28 28 29 25 24 23 21 21
27 28 29 29 30 30 30 30 30 30 30 29 29 29 27 24 21 18 15 15 16 17 17 18 20 25 27 28 29 29 28 25 22
30 31 32 33 34 35 34 33 33 32 31 30 30 30 29 29 28 25 23 21 18 17 19 19 19 20 25 28 28 28 26 24 25
28 29 30 31 31 31 30 31 32 32 33 33 32 31 30 30 29 27 27 28 26 23 20 19 20 20 21 24 26 27 32 30 26
27 28 29 30 32 33 34 35 35 35 35 35 36 36 35 34 31 29 26 26 27 27 26 24 22 21 22 25 26 27 28 35 38
32 31 32 36 38 40 40 41 41 40 41 40 41 41 42 42 42 38 35 33 32 33 33 33 33 32 29 28 28 27 26 29 36
40 41 42 43 44 46 47 47 47 46 46 46 46 45 46 46 47 47 45 43 41 39 39 42 41 40 40 41 42 41 38 37 37
44 46 48 50 51 51 50 49 48 46 44 44 42 43 42 42 42 43 44 45 44 43 43 42 42 44 46 46 47 48 48 48 47
47 49 50 50 49 48 47 44 42 41 40 41 39 39 39 38 37 37 40 42 45 47 48 48 48 48 49 51 52 52 53 54 53
44 43 42 40 39 38 39 38 39 39 40 40 38 37 37 37 40 41 41 41 43 43 45 50 52 51 51 53 57 57 57 55 51
37 38 38 37 36 36 35 33 30 28 29 35 37 39 35 37 40 40 38 41 42 46 52 55 55 57 59 60 60 63 65 64 61
37 37 36 34 30 27 26 26 27 27 28 29 35 38 38 35 31 32 34 35 38 40 41 46 52 60 65 69 72 70 68 71 71
34 32 29 28 28 29 30 30 30 30 31 30 31 32 33 36 30 31 31 31 34 34 35 37 39 44 50 58 65 75 79 81 81
30 31 31 31 31 31 30 30 30 29 29 30 31 31 32 36 38 32 35 35 37 35 35 33 37 41 46 47 53 62 75 85 95

GFSFLT1_prec_cthk_018.txt.gz
RH
22 19 17 17 17 17 15 15 16 21 19 20 23 23 24 25 25 24 25 22 26 22 23 26 23 26 24 21 18 17 16 15 14
24 20 19 18 17 16 15 15 15 13 13 15 17 22 22 22 24 24 23 24 25 23 25 26 23 19 22 19 20 19 17 16 15
22 20 20 18 18 18 21 21 20 19 18 16 16 22 23 23 22 24 23 20 20 21 26 25 26 23 20 19 20 20 19 18 17
17 18 17 18 20 19 20 21 22 22 22 23 22 20 17 18 21 23 23 22 19 20 22 24 26 26 25 26 25 22 21 20 20
18 17 17 16 17 17 18 21 24 24 25 24 23 18 17 18 23 23 22 16 17 18 19 21 24 25 26 26 25 22 20 22 21
25 23 23 23 23 23 24 24 25 25 26 25 24 23 23 25 24 22 18 15 16 17 17 18 22 24 25 26 25 24 22 20 20
28 28 28 28 28 28 29 29 29 30 32 33 31 31 33 32 29 26 21 18 15 15 16 16 17 20 24 25 26 26 25 26 21
30 29 30 31 32 33 34 34 34 35 35 35 34 33 33 33 31 28 26 25 22 18 15 15 17 18 19 24 26 26 27 27 27
29 29 30 30 31 32 30 32 33 33 33 34 34 34 34 33 32 28 25 26 26 25 23 20 17 18 19 20 23 26 27 27 27
30 31 32 33 35 34 34 34 36 36 37 38 38 37 37 37 37 35 32 29 28 27 26 25 24 21 19 18 19 20 25 27 28
33 33 33 34 35 36 37 38 39 39 40 40 41 41 42 41 42 43 43 42 41 38 36 35 33 31 30 29 26 25 25 27 31
37 37 39 40 43 41 43 45 47 48 49 48 48 47 45 44 44 46 45 45 43 43 42 41 40 41 41 39 37 35 34 31 30
41 42 44 46 47 49 50 51 49 48 48 47 45 44 42 41 41 42 42 41 42 42 43 45 46 46 45 44 45 46 44 42 42
42 44 46 47 49 49 48 45 43 40 40 40 38 38 35 36 36 36 37 38 37 38 40 43 46 50 51 50 50 51 51 51 50
45 45 44 42 40 39 38 39 40 39 38 35 33 31 30 30 32 35 38 41 42 44 43 44 45 42 45 52 55 55 54 55 56
38 36 36 36 36 35 34 34 31 30 30 29 30 29 31 36 34 43 41 37 38 41 44 44 46 48 52 52 53 58 60 58 59
35 35 35 35 35 33 30 28 28 30 31 31 30 29 28 29 33 27 27 31 30 35 42 44 44 46 46 51 51 57 64 68 68
37 38 37 33 29 28 27 28 28 29 28 29 31 33 32 29 26 27 27 30 32 29 30 34 38 39 43 43 43 45 50 61 69
36 34 31 29 28 27 25 23 21 24 23 22 22 24 26 30 27 28 28 28 30 26 27 31 32 35 36 42 48 50 50 48 53
33 30 27 25 22 20 18 18 17 20 21 21 22 23 23 25 29 25 25 25 25 25 26 28 29 31 36 39 44 51 56 63 68

GFSFLT1_prec_cthk_021.txt.gz
RH
26 22 21 19 18 17 16 14 14 14 14 16 17 19 21 22 23 24 24 22 22 25 22 23 24 25 25 25 24 19 17 16 15
30 22 21 19 18 16 15 14 16 16 14 13 12 14 17 19 20 19 25 22 24 25 21 25 26 22 18 19 19 20 19 17 16
26 20 19 18 16 16 14 19 20 20 19 18 16 16 14 13 16 19 18 21 18 17 18 23 24 25 23 18 17 17 17 17 18
21 17 16 14 14 16 14 16 20 20 20 20 17 17 16 16 15 18 21 21 19 16 17 18 25 24 26 24 20 18 17 17 17
22 21 19 18 17 18 18 20 21 22 22 22 22 21 21 20 21 22 21 21 16 15 17 18 19 26 25 25 24 22 18 17 18
34 32 26 26 26 27 28 27 28 28 27 28 30 30 27 28 29 28 27 25 20 16 15 16 17 18 23 23 24 24 22 20 19
34 30 28 28 29 30 31 31 32 31 32 35 34 33 32 32 30 28 27 26 25 23 19 15 14 15 17 19 23 24 26 26 24
33 32 31 28 29 29 30 31 32 33 34 34 35 34 32 32 31 30 30 27 26 26 24 23 20 16 15 16 17 20 23 25 27
34 34 34 34 34 35 36 37 37 36 36 36 36 37 38 38 37 36 35 34 33 34 34 31 29 26 23 18 16 16 17 20 24
38 37 36 36 36 36 36 36 36 38 40 41 41 42 43 44 44 42 41 41 41 41 43 44 43 39 35 34 32 28 23 21 21
38 39 39 39 40 42 45 46 48 49 48 50 50 49 48 48 47 46 44 42 41 40 41 42 43 44 43 40 37 36 35 33 28
44 46 48 48 48 48 50 52 53 52 52 50 47 45 45 44 43 41 40 41 42 40 38 39 41 43 45 48 47 46 45 43 41
48 48 48 49 50 53 53 50 46 43 40 38 38 36 35 34 32 31 34 39 38 38 40 40 39 40 44 46 48 52 56 56 52
47 47 48 50 49 46 42 38 37 37 36 35 33 31 30 30 29 31 35 38 40 41 39 38 40 40 42 45 46 48 49 53 58
44 43 41 38 37 36 35 36 36 34 32 29 28 27 26 25 30 33 34 38 42 40 33 38 42 42 42 41 45 51 55 54 54
35 34 34 34 36 38 37 35 31 27 27 26 25 24 23 26 28 29 34 33 30 25 28 31 37 45 54 48 39 42 47 54 58
35 38 40 40 39 35 29 26 24 24 24 23 22 22 20 23 21 19 19 20 24 26 27 30 33 33 32 32 38 41 41 41 47
42 41 37 33 28 26 22 20 19 20 19 21 21 23 23 20 20 19 23 25 21 24 24 23 21 23 21 22 25 30 40 45 48
40 36 31 28 25 21 20 19 18 19 20 19 20 20 22 26 25 23 19 19 18 16 17 17 18 20 23 27 31 35 40 46 47
33 30 28 24 22 21 19 18 18 18 21 20 20 20 21 22 21 21 21 20 19 19 21 23 20 21 24 29 33 35 35 40 47

GFSFLT1_prec_cthk_024.txt.gz
RH
24 23 21 19 17 15 15 14 13 14 14 13 13 16 14 14 13 15 21 22 19 23 24 23 20 20 22 24 24 22 19 17 16
29 22 20 19 18 15 12 12 13 13 12 13 13 12 11 10 10 10 13 18 20 18 23 18 19 20 24 19 20 19 17 17 16
25 18 16 13 11 11 11 11 13 13 13 13 14 13 13 14 13 13 13 17 18 17 14 15 16 23 22 23 16 16 16 16 16
27 23 17 15 13 13 14 15 15 17 18 19 19 19 19 19 18 16 16 15 20 19 15 15 16 18 20 25 24 19 16 16 17
32 29 25 24 24 24 25 25 25 25 25 24 25 26 25 25 24 23 23 23 22 20 17 16 16 17 19 22 24 25 24 19 18
36 33 30 28 28 27 27 28 29 29 30 32 34 34 33 32 32 31 30 29 27 25 24 22 19 16 15 16 20 22 24 25 25
35 33 29 28 27 28 28 29 29 29 29 29 30 29 29 29 29 29 30 29 29 30 29 28 26 24 19 16 14 16 21 23 24
33 34 34 32 30 30 31 31 32 33 33 33 34 34 33 35 36 38 37 38 38 37 37 37 36 34 32 30 25 20 18 20 21
34 36 36 35 34 33 34 35 36 38 40 41 42 41 43 44 45 44 45 45 45 45 44 44 44 44 44 43 40 38 34 27 24
37 38 38 38 39 41 43 45 46 47 47 46 50 51 50 49 51 49 46 45 45 45 45 46 46 45 45 46 47 45 43 40 37
40 41 45 50 49 48 48 48 47 47 49 49 47 43 40 39 39 39 38 36 36 36 40 41 41 41 43 45 46 50 56 52 45
45 48 51 50 49 48 48 48 48 45 39 35 34 36 37 34 33 32 31 30 32 39 41 39 37 37 37 42 43 42 48 56 63
47 49 50 49 48 48 48 43 38 35 35 35 36 35 32 29 27 26 26 31 35 37 38 40 44 41 35 37 38 40 40 43 47
48 47 45 41 40 37 34 33 34 35 34 33 30 26 24 21 21 26 30 29 32 34 40 37 35 33 30 38 49 48 48 46 44
43 37 32 30 32 35 37 37 36 33 28 24 20 18 17 19 24 22 24 26 27 29 33 32 30 25 29 32 38 41 55 57 52
29 28 31 35 38 38 36 30 26 23 19 16 15 15 17 17 17 22 21 20 20 21 20 22 23 25 28 33 37 37 39 36 33
33 34 37 38 37 34 29 24 21 18 18 19 17 17 16 20 16 16 15 17 18 19 16 17 18 17 16 16 15 16 17 19 28
36 37 38 36 30 25 21 19 18 17 17 18 19 21 21 18 18 17 18 19 15 16 15 13 12 12 14 15 15 16 19 24 31
37 36 31 26 23 21 20 18 18 18 18 18 19 19 20 23 23 21 16 14 13 12 13 12 14 17 15 11 13 23 29 27 29
35 28 25 23 22 21 20 20 20 20 20 20 20 20 19 18 20 20 18 16 14 14 14 15 13 15 12 16 23 26 23 21 24

GFSFLT1_prec_cthk_027.txt.gz
RH
22 19 17 16 15 13 12 13 13 13 13 12 11 11 12 10 10 10 12 16 16 18 20 19 20 19 21 24 26 24 24 22 18
22 19 16 15 13 11 11 11 11 11 12 11 11 11 12 12 12 12 12 14 17 19 20 21 19 17 18 19 20 21 23 19 17
28 25 20 15 13 12 13 13 13 14 14 15 15 16 16 16 17 17 16 16 16 20 23 20 16 17 22 26 25 20 17 17 17
37 34 27 23 22 22 22 22 22 22 22 22 22 22 23 24 24 24 23 23 22 22 28 22 17 16 17 24 25 28 24 20 18
31 30 30 30 29 28 28 28 29 30 31 32 33 35 35 35 35 35 35 34 32 31 34 31 27 23 19 18 22 24 26 26 25
33 30 29 29 29 30 31 31 31 31 31 32 32 32 32 31 32 32 33 32 31 31 32 31 30 29 28 25 22 20 24 24 25
34 33 31 31 32 31 31 32 32 32 33 33 35 35 36 36 37 36 36 36 37 39 38 38 38 38 37 35 34 33 29 27 25
34 34 34 34 33 33 32 32 33 34 36 39 40 42 43 43 43 43 43 45 45 46 45 46 46 45 46 44 45 45 44 42 37
38 37 35 34 34 36 39 41 43 44 44 44 45 45 46 47 46 44 45 42 43 45 45 44 47 45 44 44 45 46 47 46 43
41 39 38 39 41 43 45 46 46 44 42 42 42 39 37 37 37 39 39 40 42 42 41 43 41 47 47 47 47 45 49 53 56
45 46 44 46 47 48 46 45 45 44 44 41 36 32 30 32 32 33 34 34 32 29 31 33 43 44 41 42 43 44 44 44 49
49 50 49 50 48 47 47 45 42 37 30 31 32 32 33 33 30 27 25 23 24 28 33 35 37 42 48 51 51 43 38 40 42
51 51 51 51 50 46 38 31 29 31 33 33 32 29 25 22 20 18 18 21 25 29 32 33 30 38 36 37 41 37 35 49 55
54 51 49 43 34 29 30 31 33 33 31 26 22 19 16 15 16 18 21 23 24 25 27 29 30 32 31 31 33 30 30 39 48
46 37 33 32 31 33 33 34 32 28 24 21 18 16 16 16 17 17 18 20 17 19 20 21 24 26 29 23 25 24 30 29 29
34 35 34 34 34 33 32 30 25 21 18 18 17 16 16 15 17 17 16 16 15 16 16 16 15 15 15 15 15 14 16 18 24
37 35 35 34 31 28 26 22 20 19 18 18 17 17 16 18 16 17 16 15 16 15 13 12 11 11 11 11 12 12 11 12 18
36 35 34 32 29 25 21 20 19 18 18 18 20 21 21 18 18 16 17 18 15 14 13 12 11 12 14 14 14 12 10 17 20
39 38 34 28 24 21 20 20 20 20 21 21 21 21 21 21 21 19 15 15 15 13 12 13 13 16 13 13 15 13 18 19 24
40 36 29 25 22 21 21 22 22 22 22 22 21 19 19 19 22 20 17 16 15 13 14 12 15 15 15 13 11 13 15 17 18

GFSFLT1_prec_cthk_030.txt.gz
RH
21 17 15 15 15 14 13 13 13 13 14 14 13 12 12 12 12 11 11 11 14 17 21 21 22 21 20 21 25 26 28 26 25
26 22 17 14 11 11 12 12 13 13 14 14 14 15 15 16 16 16 16 15 16 17 21 22 22 22 21 21 24 24 24 25 26
38 35 29 21 18 17 17 18 19 19 20 20 20 21 21 22 23 23 22 21 20 21 24 25 25 23 24 25 29 29 27 26 26
35 34 31 29 28 28 28 27 27 27 28 28 30 30 32 32 33 33 33 33 32 31 30 34 34 33 28 25 26 29 28 35 30
32 31 30 30 30 30 31 32 32 32 32 32 33 33 33 33 34 34 36 36 36 36 36 36 38 36 34 32 29 24 26 26 29
33 32 31 30 30 31 31 32 32 33 33 34 34 34 35 35 36 36 37 36 36 34 34 36 36 35 34 33 32 31 29 25 26
34 34 33 33 33 33 32 32 32 32 33 35 38 39 40 41 42 41 42 42 42 41 43 46 43 43 43 42 40 39 39 39 37
36 36 36 35 34 34 35 36 39 42 43 43 43 42 43 42 40 40 39 38 39 46 46 48 51 52 49 47 44 45 44 45 47
38 39 40 40 40 40 42 43 44 43 45 44 40 38 38 39 39 38 38 40 41 41 40 40 41 45 48 49 52 58 56 57 57
44 44 45 46 47 48 46 46 46 46 46 44 42 42 40 36 33 32 33 34 35 37 37 35 34 33 36 44 44 49 53 55 50
48 47 47 49 52 49 47 48 47 46 41 35 34 31 32 32 33 32 30 28 26 25 25 27 27 29 32 38 40 44 49 47 45
50 46 48 52 53 51 49 47 43 37 31 30 31 31 29 27 25 23 21 20 19 20 24 27 31 32 31 32 38 42 46 48 44
53 55 55 54 51 45 39 34 31 30 30 29 27 24 22 20 18 17 18 20 23 26 27 27 27 28 30 28 32 36 33 37 37
57 57 53 43 37 35 34 31 31 30 27 23 21 20 19 18 19 21 23 23 22 20 18 19 22 23 24 26 25 28 28 25 24
54 41 36 37 36 33 31 30 26 21 19 19 20 19 18 19 17 17 19 18 18 18 17 18 17 17 16 16 17 18 18 20 23
38 38 39 37 32 31 29 24 19 18 18 19 19 18 18 17 19 18 17 16 16 16 17 15 13 13 12 12 12 11 11 13 16
39 39 37 35 34 30 22 18 19 20 20 19 19 18 18 19 19 18 17 16 16 16 16 14 14 13 13 13 12 11 11 12 16
41 40 40 37 30 22 22 21 21 20 20 20 21 20 22 19 19 17 18 18 17 16 15 14 13 12 12 12 12 12 11 14 17
43 41 38 30 24 22 22 22 22 21 21 20 21 21 21 21 20 20 19 18 17 15 14 13 12 11 12 11 11 10 12 13 15
42 38 33 27 24 23 23 23 22 21 22 21 20 20 21 21 24 22 19 16 14 12 11 10 9 9 10 11 11 12 13 15 18

GFSFLT1_prec_cthk_036.txt.gz
RH
33 25 20 16 13 11 11 11 12 13 13 14 14 14 14 15 16 16 17 16 14 14 16 17 21 20 20 20 21 23 37 43 38
38 36 33 28 25 22 20 19 18 19 19 19 20 21 21 24 25 25 24 23 23 21 21 21 25 24 25 29 24 21 20 23 25
44 39 35 31 30 30 31 31 31 30 30 31 31 31 32 34 34 34 34 34 33 32 32 31 30 32 33 30 26 25 25 27 33
40 37 33 31 31 31 31 31 32 33 34 35 35 35 35 36 36 36 37 37 36 36 36 35 34 33 34 35 35 35 34 31 31
39 34 32 34 33 32 33 34 34 35 35 36 36 37 37 37 38 38 40 40 39 41 40 40 40 38 38 39 39 37 34 32 32
36 36 37 36 37 37 37 36 36 37 36 37 38 40 42 43 43 43 43 43 43 45 49 54 56 55 55 53 52 48 43 40 39
42 39 38 38 39 41 41 41 41 43 42 42 42 42 43 44 44 42 40 38 37 37 35 36 41 47 49 49 52 54 52 49 45
45 43 42 41 42 44 43 45 47 49 47 46 44 43 42 42 42 40 39 38 35 34 35 37 36 38 40 42 46 53 53 57 57
50 48 46 45 46 49 48 46 50 50 49 48 44 40 38 37 37 34 31 29 29 30 29 29 29 30 32 33 33 32 37 46 50
56 53 50 48 50 50 50 49 50 49 46 43 43 41 37 34 30 28 26 25 25 25 24 25 24 24 25 25 26 28 31 30 36
57 55 53 52 52 51 50 52 50 45 42 40 36 33 31 29 25 23 22 20 20 20 21 22 21 21 23 24 25 27 29 30 31
58 54 52 53 52 51 50 44 44 39 36 35 33 29 25 22 21 19 18 18 19 21 22 23 24 25 27 28 29 30 31 31 30
59 55 54 53 49 44 41 38 38 36 34 29 24 20 19 18 18 17 18 21 23 24 24 23 22 21 21 20 19 19 20 22 24
59 55 53 46 37 36 37 38 37 33 27 21 17 16 16 16 17 20 21 22 21 21 20 18 17 18 19 20 20 19 18 18 17
60 54 40 33 35 36 38 37 31 24 18 17 16 17 18 20 22 22 21 20 20 19 18 18 18 18 17 17 17 17 16 16 15
56 39 34 37 39 41 37 30 23 18 17 17 18 19 20 20 20 20 20 20 19 20 20 19 19 18 18 18 17 16 15 14 14
43 38 38 41 42 38 33 25 20 18 18 19 20 21 20 21 21 19 19 21 22 21 20 20 20 19 18 16 14 12 11 10 12
41 43 44 45 42 37 30 23 20 20 20 20 21 21 21 20 20 21 22 22 22 21 21 20 17 15 13 11 10 10 9 9 16
44 45 48 47 43 36 30 25 21 21 22 22 22 23 24 24 22 23 23 22 21 20 17 15 13 11 11 10 10 9 9 11 17
47 49 50 48 44 40 33 25 23 23 24 24 25 26 26 25 26 25 23 21 18 15 13 11 11 11 10 10 10 10 17 17 18

GFSFLT1_prec_cthk_039.txt.gz
RH
33 27 23 19 16 14 13 12 14 14 13 13 13 14 16 17 19 21 21 19 18 16 16 17 19 20 21 21 20 18 25 31 41
38 37 33 30 28 28 28 27 26 25 24 25 26 24 24 28 29 29 29 29 29 28 25 24 26 29 27 27 26 25 21 26 33
42 37 34 30 31 31 32 32 32 32 32 33 33 33 34 34 35 34 34 33 33 33 33 32 32 30 32 31 29 28 26 25 25
47 38 34 31 30 30 30 32 33 34 35 35 36 36 35 35 36 35 35 36 36 35 35 36 37 35 34 34 33 33 32 31 30
45 39 34 34 33 33 34 35 36 36 36 36 36 37 37 38 39 41 42 42 42 42 45 51 54 61 61 59 58 51 44 39 36
40 37 37 36 37 38 39 39 40 40 40 40 41 41 41 42 42 43 42 41 40 38 39 40 45 50 53 56 59 62 57 52 49
44 43 41 39 40 41 42 43 42 43 44 45 46 45 45 44 45 43 42 41 41 40 37 36 35 34 39 46 46 47 47 54 61
50 46 45 44 43 43 45 47 47 46 46 46 47 45 42 39 40 39 38 36 33 31 31 31 31 33 34 35 36 37 39 44 49
55 51 50 48 47 49 49 49 49 47 47 48 46 43 41 38 38 36 32 30 28 27 26 26 26 25 25 24 25 26 28 30 31
60 58 57 53 54 50 50 50 48 46 46 44 43 42 38 33 32 30 27 23 22 22 21 20 20 20 20 21 22 22 24 25 26
58 58 57 56 54 51 51 47 43 43 42 41 38 36 33 29 25 23 21 20 20 19 19 19 20 21 22 24 25 27 28 28 28
63 60 57 57 54 51 47 43 39 38 37 37 35 31 26 22 19 18 18 18 18 19 21 23 24 24 24 23 23 23 22 22 21
65 62 58 56 52 46 39 34 35 37 37 34 28 21 18 16 16 17 18 21 23 24 23 22 20 19 18 18 18 19 20 20 19
64 62 58 54 45 36 33 36 37 35 29 23 20 17 16 16 17 19 21 22 22 21 21 20 18 17 17 18 18 18 18 18 18
72 60 58 47 37 36 38 38 34 30 24 20 18 16 18 18 19 21 22 21 21 21 20 18 19 19 20 20 19 19 19 18 18
69 61 52 39 41 41 39 37 33 27 22 19 17 18 19 17 19 20 21 20 20 20 20 20 20 20 20 19 19 18 17 15 14
65 56 42 43 45 45 44 40 34 26 21 19 19 19 19 21 21 21 21 21 21 22 22 22 22 21 21 19 17 15 14 13 12
59 48 45 46 48 48 46 43 36 26 21 21 21 20 21 21 22 22 23 23 23 24 24 23 21 19 17 16 14 13 12 12 12
53 47 48 50 50 49 47 44 36 29 25 23 22 22 22 22 23 24 26 26 26 25 22 20 19 17 16 14 14 13 12 11 20
50 50 51 52 52 51 47 41 37 33 27 26 26 26 25 24 26 26 27 26 24 22 21 19 16 15 14 14 13 12 17 20 20

GFSFLT1_prec_cthk_042.txt.gz
RH
28 27 23 19 17 15 14 16 18 18 17 15 13 14 15 19 25 26 26 21 21 20 18 19 20 21 22 23 22 21 19 27 31
35 35 30 27 27 27 26 26 26 26 26 28 31 33 30 34 37 38 36 34 32 31 30 29 29 28 31 30 29 28 26 23 29
38 36 32 28 28 29 30 31 31 31 32 32 33 34 34 37 39 37 36 35 34 34 33 33 33 32 31 31 31 30 28 25 23
45 38 34 30 29 29 29 30 31 32 33 33 34 35 36 36 38 37 39 39 39 40 40 44 48 50 52 49 44 42 38 34 32
43 39 35 34 33 32 33 34 35 36 36 37 37 38 38 41 41 42 41 41 41 45 46 46 46 50 55 61 64 66 64 59 53
46 40 35 35 36 37 38 38 39 40 41 42 42 43 46 47 46 45 41 42 40 40 39 37 37 39 45 49 53 55 56 56 57
48 44 42 41 41 40 41 41 42 43 46 47 45 46 46 45 42 41 39 39 39 38 39 35 32 32 34 37 39 44 50 49 48
52 51 49 47 46 46 44 46 47 48 47 45 44 43 41 41 41 38 37 34 34 32 31 29 27 27 28 29 30 30 31 31 32
58 56 54 53 52 50 50 50 47 50 46 44 41 42 42 41 38 34 31 31 30 28 25 23 22 22 22 22 21 22 22 23 24
63 59 59 58 57 54 52 51 50 47 43 40 41 41 39 36 34 31 28 24 22 21 20 20 19 19 19 19 19 19 20 21 23
66 62 61 60 58 57 56 52 44 41 39 35 36 36 34 31 28 24 20 18 17 17 17 17 18 19 20 21 22 23 24 25 25
67 66 62 59 60 58 52 44 42 37 33 33 34 32 28 24 21 18 17 17 17 18 19 21 22 22 21 20 19 19 18 19 19
70 70 66 63 60 54 45 39 36 35 34 31 27 24 21 20 18 17 18 20 21 20 20 20 20 20 19 18 17 16 16 16 16
74 74 68 63 60 46 39 38 40 33 29 26 24 22 20 19 18 19 20 20 20 20 20 21 21 19 18 18 18 18 18 19 19
77 81 75 64 54 41 41 43 39 34 30 27 24 21 20 18 18 21 21 19 19 19 20 20 19 19 19 19 19 20 20 19 18
82 84 74 62 45 44 46 44 42 39 35 30 25 21 19 18 20 21 20 20 20 20 20 19 19 20 20 20 20 19 18 18 18
83 82 69 53 46 48 49 47 45 42 38 32 27 24 23 24 23 21 21 21 21 21 21 22 22 21 21 20 20 19 18 17 17
86 79 63 49 49 51 52 50 47 43 37 31 27 26 27 25 24 24 24 23 24 25 25 23 23 22 21 20 19 18 17 16 16
83 68 56 50 51 54 54 52 50 46 38 32 29 27 26 27 26 27 27 29 29 28 26 25 23 22 21 19 18 17 16 15 16
65 66 52 52 54 56 56 55 54 49 40 36 32 28 27 28 29 29 30 30 30 29 28 27 24 23 23 22 21 21 22 21 21

GFSFLT1_prec_cthk_045.txt.gz
RH
30 27 25 21 18 16 21 23 23 21 22 18 13 13 15 20 30 28 28 28 26 27 24 24 25 27 27 26 26 26 24 20 26
34 33 30 28 27 25 25 25 25 25 25 26 27 29 30 34 43 43 40 37 33 33 32 32 31 31 30 30 31 28 29 26 25
35 35 31 28 28 28 29 29 29 30 30 31 31 32 33 36 41 39 39 37 34 34 33 35 38 40 42 38 34 34 33 30 27
40 38 35 31 30 29 29 29 30 31 33 34 34 34 34 34 41 39 43 39 38 39 41 45 44 45 50 54 62 60 54 52 48
51 41 35 33 33 33 34 34 35 35 36 37 37 38 40 42 46 45 43 40 40 39 38 38 39 40 41 46 50 54 58 60 63
51 45 39 36 35 36 36 37 38 39 41 40 40 41 47 46 47 46 42 40 40 40 39 38 38 36 32 33 39 43 49 54 57
59 49 45 44 42 41 41 41 41 43 49 47 43 45 44 42 40 38 36 36 36 35 33 32 31 31 30 29 29 29 31 34 40
48 52 51 50 49 50 47 47 51 47 47 47 44 41 38 37 40 37 35 33 32 31 31 30 28 27 25 23 23 23 24 24 24
54 58 58 56 56 59 59 55 50 49 49 44 40 38 37 37 37 35 34 32 30 28 25 23 21 21 20 20 19 18 19 19 20
60 61 63 64 62 60 56 54 52 50 43 39 37 34 31 33 34 31 29 26 23 20 18 17 16 15 15 16 16 18 19 19 20
68 67 67 64 62 60 58 55 52 45 41 36 34 32 29 29 27 25 23 21 19 17 16 16 17 19 20 20 19 19 18 18 18
71 67 66 64 63 59 58 53 47 42 37 35 33 26 25 24 23 21 23 20 19 18 18 20 20 19 18 17 17 17 16 16 16
78 73 71 68 66 62 55 48 42 40 37 34 29 23 22 21 22 22 22 21 21 19 19 19 19 18 19 18 17 17 17 17 17
66 78 77 73 69 66 50 44 43 41 38 35 30 26 23 23 23 24 21 20 19 19 19 18 18 18 18 17 17 17 18 18 19
64 75 81 79 75 67 49 46 45 43 42 39 34 31 27 26 25 24 21 20 19 20 18 18 18 18 18 18 18 19 20 20 20
67 74 83 85 76 60 51 49 47 47 45 41 36 33 30 27 26 24 23 23 22 21 20 20 20 20 20 21 21 20 19 18 18
79 86 87 86 71 57 53 51 50 49 47 42 40 37 33 33 28 27 24 24 24 24 23 22 23 23 21 20 20 20 20 19 18
81 90 92 87 71 58 56 54 53 50 50 48 43 40 38 34 29 26 26 25 26 25 26 26 24 23 22 22 21 20 20 19 18
77 84 85 79 65 57 57 56 55 54 53 50 47 42 38 33 29 28 28 29 29 29 28 28 25 23 22 22 21 21 19 17 20
82 78 77 75 55 53 55 56 56 56 55 51 46 43 39 35 33 32 32 31 30 29 28 26 26 25 24 23 23 24 24 24 23

GFSFLT1_prec_cthk_048.txt.gz
RH
26 26 24 23 21 19 23 22 25 27 23 21 15 15 18 26 33 36 34 32 31 30 30 30 30 31 30 28 27 26 29 29 24
31 29 26 26 26 26 29 28 28 28 26 26 28 30 33 38 39 40 36 36 34 33 34 33 35 38 37 35 31 30 28 30 24
33 31 28 27 27 27 27 28 28 28 29 30 30 31 33 37 43 41 38 37 35 36 37 38 40 39 42 48 54 52 46 45 40
39 36 31 31 31 31 30 29 30 31 32 33 33 34 35 39 43 38 43 38 36 35 36 38 40 40 41 41 45 52 59 61 61
47 42 37 33 32 32 34 34 34 35 36 37 38 39 41 44 45 45 45 42 39 38 36 35 34 34 33 33 36 42 48 55 57
50 48 44 41 39 37 36 36 37 39 41 42 42 44 45 45 43 40 38 36 35 34 34 34 33 32 31 30 29 30 32 38 45
47 49 46 47 46 45 43 43 43 44 47 46 44 44 43 41 35 33 32 33 32 31 30 30 30 29 29 28 25 25 25 25 26
48 49 46 48 49 51 50 51 48 49 49 48 46 41 39 36 34 32 32 33 32 31 30 27 25 24 23 21 20 19 19 19 20
47 50 53 53 55 58 57 54 54 52 50 47 42 39 37 33 32 29 30 30 29 27 24 22 19 17 16 16 15 14 14 15 16
53 56 57 57 60 62 60 57 54 52 48 43 38 35 33 30 28 25 25 25 24 22 20 19 17 16 16 17 17 18 18 17 17
58 60 62 64 63 64 64 59 56 49 43 39 37 35 31 27 23 21 22 22 21 20 19 20 19 18 19 19 18 17 16 16 15
62 60 63 66 65 64 64 63 56 45 40 39 37 33 29 26 22 20 21 21 22 21 20 21 20 18 18 18 17 17 17 16 16
60 59 58 62 75 67 64 60 52 45 43 42 38 34 30 28 25 23 23 22 22 22 22 20 18 17 18 17 17 16 16 16 16
59 58 58 59 67 74 70 57 52 51 45 43 40 37 35 31 28 27 27 26 25 23 21 19 18 18 18 17 17 17 17 17 18
55 54 53 57 63 71 73 58 55 54 50 46 42 39 36 33 30 29 28 26 25 24 22 21 20 20 20 20 20 20 20 20 20
68 66 60 60 64 70 66 60 58 55 54 49 44 41 41 39 36 33 31 30 28 26 23 22 22 21 21 21 22 22 21 20 20
71 69 72 77 76 80 70 62 60 58 56 53 49 46 44 44 43 38 35 33 29 26 24 24 24 24 23 23 23 22 21 20 20
68 74 78 81 82 78 74 70 66 61 59 56 52 47 46 44 42 39 37 34 30 28 28 27 26 25 25 24 22 21 21 21 20
73 76 83 83 75 69 67 58 57 58 57 56 54 49 46 43 43 40 36 32 31 30 29 29 27 26 24 22 23 23 22 22 25
75 75 79 81 79 73 67 57 59 58 56 53 51 50 47 44 44 41 35 33 31 29 29 28 27 26 26 26 25 23 23 25 26

GFSFLT1_prec_cthk_051.txt.gz
RH
24 23 23 23 23 28 27 28 28 27 24 21 16 17 24 28 31 34 35 35 34 33 34 30 32 32 31 30 28 28 25 26 23
25 24 23 22 22 25 28 28 28 28 26 26 29 30 36 37 37 37 35 36 35 36 36 37 39 38 43 46 45 40 34 33 33
31 27 25 25 25 25 24 24 25 26 27 29 29 31 34 37 40 40 40 37 38 38 37 37 37 38 39 40 44 54 56 56 55
36 33 30 28 27 28 29 29 30 30 31 32 32 34 37 40 44 44 44 44 41 39 38 35 33 32 34 37 39 42 49 55 58
40 38 35 34 33 32 31 32 33 34 34 35 36 39 41 42 44 45 42 39 39 35 34 36 36 36 34 33 32 32 35 41 48
40 41 39 40 39 39 39 38 37 37 38 38 41 42 43 42 43 41 38 36 33 31 31 31 31 30 30 30 30 30 29 29 29
42 42 40 41 43 44 46 44 44 43 43 44 44 45 43 42 40 38 35 33 31 31 31 31 30 29 27 26 25 24 22 22 22
45 44 42 43 46 48 49 49 49 48 48 48 48 46 42 40 37 36 33 31 29 31 29 28 27 25 23 20 18 17 16 15 15
48 47 46 47 48 52 52 53 54 53 51 51 48 44 42 37 35 33 29 27 25 25 25 24 23 21 19 18 16 16 17 16 16
49 48 50 50 52 54 56 57 57 57 55 49 43 40 37 34 31 29 25 23 21 21 23 22 21 20 20 20 19 18 18 16 16
52 51 54 54 55 58 61 61 58 58 53 47 42 40 36 32 29 27 25 23 20 22 22 22 22 21 21 20 18 18 18 17 16
55 56 58 58 57 55 58 62 64 55 49 48 43 38 36 33 33 29 27 25 22 21 22 22 21 22 20 18 17 17 17 16 16
57 59 59 60 56 53 53 57 68 58 51 49 47 43 39 37 35 32 30 28 26 26 24 24 23 22 20 18 17 17 17 17 16
57 56 57 57 56 54 53 51 51 55 56 52 50 47 43 39 36 35 33 31 29 28 27 26 25 24 23 21 20 20 20 19 19
57 58 57 58 58 57 56 54 44 44 52 56 54 49 47 45 41 40 38 36 34 32 29 28 26 25 24 22 21 21 21 21 21
62 65 65 68 68 67 67 62 52 57 57 56 58 54 52 51 48 45 42 40 38 37 33 30 28 27 25 23 23 23 22 22 22
66 68 68 70 69 73 78 75 67 64 67 65 62 58 57 56 52 48 45 43 41 37 34 30 28 27 25 25 24 24 23 23 26
62 67 71 72 74 79 82 76 66 66 63 62 58 55 53 51 49 47 46 44 41 38 33 30 28 27 26 26 25 25 24 23 28
65 66 70 73 77 82 81 76 71 68 62 58 60 57 54 49 46 46 45 43 41 39 34 31 29 28 27 27 25 25 24 25 29
65 66 72 76 79 82 82 79 73 67 68 63 59 54 52 51 50 47 43 41 40 39 34 33 31 29 28 27 27 27 27 27 26

GFSFLT1_prec_cthk_054.txt.gz
RH
22 21 21 23 28 30 33 34 34 31 26 22 15 17 23 27 30 33 34 34 33 32 33 32 37 37 37 36 33 30 27 28 27
24 22 21 21 26 27 30 35 35 34 27 25 27 30 36 35 34 35 34 35 39 40 39 38 38 39 42 45 48 50 46 41 40
28 26 25 24 24 27 26 24 24 23 25 28 29 33 35 36 35 37 38 41 41 39 38 38 39 39 40 41 43 51 55 57 62
31 30 30 31 29 26 26 27 29 30 31 32 33 35 38 38 38 42 43 41 40 38 37 36 37 39 39 37 37 39 43 50 55
34 32 33 35 35 35 33 33 32 33 34 35 38 39 40 40 41 41 41 41 37 33 32 34 35 37 34 33 32 32 33 35 41
38 34 34 36 37 39 39 39 40 39 38 39 40 40 42 43 43 41 40 38 36 33 32 32 32 32 31 30 30 29 29 29 29
44 39 35 37 39 41 43 44 44 46 44 44 45 45 44 43 41 41 38 37 35 33 31 30 32 31 29 27 26 24 23 21 20
47 44 40 40 42 43 44 47 48 49 50 49 49 49 44 43 42 41 38 35 32 33 28 27 27 27 26 24 21 20 18 16 16
48 48 44 43 45 47 49 50 51 51 51 51 51 48 44 43 41 39 34 30 29 28 25 23 22 24 23 22 20 21 20 18 17
49 52 49 47 49 51 51 54 56 56 55 53 48 46 44 41 37 34 31 28 27 27 25 21 21 23 24 23 21 20 20 18 17
49 51 51 51 51 53 56 56 57 58 58 55 48 45 44 40 36 34 31 30 30 29 26 24 21 23 23 21 20 20 19 18 17
52 51 51 51 52 56 57 56 54 52 51 55 55 48 45 44 39 36 34 33 34 31 29 27 25 23 22 21 21 21 20 18 17
52 50 52 53 54 54 55 55 52 50 44 44 56 52 50 47 44 41 39 37 36 34 33 31 28 26 26 25 24 23 22 21 20
53 54 55 54 53 53 54 55 57 50 41 41 42 44 49 53 48 47 45 43 41 39 38 36 33 31 29 28 26 25 24 23 21
56 58 59 58 59 62 64 66 65 54 50 52 54 56 54 50 54 53 51 49 48 44 41 39 36 34 32 30 29 26 25 24 22
59 61 61 64 67 68 69 70 70 64 61 63 63 62 66 62 59 58 55 55 52 49 45 42 39 36 32 30 27 26 25 24 23
62 63 62 65 69 71 74 75 77 72 67 65 63 64 61 60 61 56 53 50 48 46 44 42 40 37 33 29 26 25 25 25 25
65 66 64 68 72 73 76 79 80 75 70 69 68 66 62 59 58 56 52 49 48 47 45 42 39 38 34 28 27 27 27 26 29
65 67 70 76 74 72 76 80 79 79 76 71 68 67 62 60 57 53 50 50 48 44 42 40 38 37 33 30 31 29 28 28 31
76 74 74 72 73 73 76 82 81 82 79 75 70 66 66 61 58 56 52 51 51 49 46 43 40 37 34 32 30 29 27 27 31

GFSFLT1_prec_cthk_057.txt.gz
RH
22 21 21 25 30 32 38 38 36 37 31 26 18 22 26 29 30 33 34 34 34 34 34 37 41 43 44 46 44 37 34 31 33
25 23 22 24 27 30 32 34 36 36 32 26 28 33 35 34 33 33 33 38 40 40 39 37 37 38 39 41 46 51 53 51 49
29 28 26 26 28 29 30 31 29 25 24 27 28 32 33 34 34 34 35 40 38 37 36 35 36 36 39 43 43 49 54 60 64
28 30 30 30 31 32 30 27 27 29 31 32 34 35 36 37 38 38 38 40 37 36 33 33 38 38 35 33 34 37 42 46 52
31 29 31 32 33 34 35 35 36 36 36 36 36 38 40 40 40 41 40 40 39 35 32 34 34 33 31 29 29 29 30 32 35
36 34 33 32 34 35 37 39 40 40 41 41 42 44 45 46 45 44 42 41 37 35 33 33 32 30 30 31 30 30 29 29 28
42 40 37 36 37 39 40 41 43 45 45 45 48 48 48 47 45 44 43 42 40 37 32 31 29 28 26 26 25 24 23 21 20
46 46 41 40 40 40 42 45 47 48 49 50 50 50 49 47 46 45 44 42 40 36 29 27 26 25 23 22 23 22 22 20 20
46 46 46 46 45 44 45 46 48 50 51 53 55 53 48 45 45 44 40 37 35 33 30 27 27 26 22 21 22 24 23 21 19
49 47 48 48 49 49 50 52 51 52 52 52 52 49 48 46 43 39 37 35 34 33 31 29 29 26 25 22 22 22 22 21 19
50 51 52 51 52 52 53 56 57 57 55 52 46 44 49 50 45 42 39 37 35 34 33 31 31 29 27 25 22 21 21 20 20
48 52 55 56 55 53 54 56 57 57 54 51 41 37 41 51 50 45 44 40 39 37 35 35 34 33 31 29 27 26 25 24 23
49 52 53 54 57 57 56 55 55 55 54 55 43 40 39 37 40 42 46 47 44 43 42 41 39 37 36 34 32 31 29 27 27
50 53 55 56 59 58 57 56 58 62 61 55 47 48 49 49 48 49 48 46 50 50 48 46 44 42 39 37 35 34 32 31 29
54 55 56 56 60 60 61 65 66 66 61 53 55 55 56 56 53 55 56 57 57 56 54 52 49 47 45 41 39 36 33 30 28
58 57 57 58 61 63 65 67 69 71 69 60 61 61 58 57 58 59 59 58 58 52 50 48 45 44 42 41 39 37 33 30 28
64 61 62 62 65 67 66 67 70 73 73 66 62 61 61 61 61 59 60 58 56 53 50 46 45 44 43 40 37 35 33 29 27
68 70 70 66 68 70 73 78 76 76 75 71 67 65 66 64 64 62 60 60 57 54 52 50 46 43 42 40 39 37 35 31 31
65 69 74 76 77 77 83 87 84 79 77 74 73 70 69 65 62 63 62 58 56 56 53 52 51 49 46 43 41 38 35 32 34
63 65 71 74 79 84 87 87 88 84 80 79 75 70 68 69 62 62 60 58 58 58 57 55 53 49 47 44 40 36 34 32 31

GFSFLT1_prec_cthk_060.txt.gz
RH
23 22 22 30 28 32 39 41 36 38 36 31 24 27 31 33 33 34 35 36 38 39 40 39 43 46 46 45 46 45 43 37 36
25 26 25 29 29 33 37 35 35 37 34 25 26 31 33 33 34 34 36 40 42 41 40 37 38 38 40 41 45 51 57 57 56
26 27 28 30 32 33 35 35 35 33 26 27 30 34 35 36 35 35 37 41 40 38 36 36 35 34 35 38 38 43 51 58 58
29 27 28 31 33 34 35 35 32 29 31 32 33 37 38 39 40 39 40 42 38 36 35 39 38 35 34 33 31 31 33 38 44
33 32 30 31 32 33 33 34 36 38 38 38 39 40 41 42 43 43 41 41 39 37 36 35 36 33 31 30 30 31 31 31 31
34 35 35 34 34 34 36 38 39 40 41 42 43 44 46 46 46 44 44 42 40 39 36 35 33 31 29 28 27 26 27 26 27
38 37 37 39 38 37 38 41 43 44 45 46 48 50 49 48 47 45 43 42 42 38 35 33 31 28 26 25 23 21 21 22 22
46 43 40 41 42 42 41 42 43 45 46 48 48 49 50 48 45 42 43 42 43 36 33 31 30 29 26 24 24 21 20 22 22
49 48 44 42 45 45 46 47 48 50 50 49 49 48 47 43 42 40 37 35 37 35 33 32 31 29 27 26 26 23 20 20 21
46 49 49 47 47 48 49 50 52 54 54 54 52 48 41 38 38 39 37 38 37 36 34 33 32 30 29 29 28 25 23 21 21
42 47 50 48 47 50 52 52 54 56 57 56 53 48 40 37 36 37 40 44 40 37 38 36 34 34 32 33 32 30 28 26 24
40 45 49 49 49 53 53 53 56 57 55 55 53 49 42 41 38 37 35 34 36 39 42 42 41 40 39 38 37 36 34 33 30
41 45 50 52 54 55 57 57 58 57 56 55 58 51 46 45 45 43 43 43 46 46 44 45 46 45 44 43 42 40 39 37 34
43 47 52 55 54 57 58 57 59 59 61 61 59 51 48 49 51 52 51 48 49 50 51 51 50 50 50 48 46 44 43 41 38
50 51 55 56 55 56 58 59 60 62 63 63 61 53 54 55 55 53 52 52 53 51 52 53 50 47 46 44 42 40 39 38 38
59 59 62 62 61 59 61 62 64 65 65 65 63 56 57 58 57 56 56 56 55 54 54 52 52 49 47 45 43 40 38 35 33
67 67 73 74 70 65 65 66 69 68 68 69 70 62 60 61 61 62 61 61 61 58 55 55 52 50 50 48 46 45 43 40 37
78 76 76 77 75 73 73 75 81 83 84 83 79 68 66 65 64 63 64 62 61 58 56 53 51 51 51 51 50 48 46 44 41
63 71 77 77 76 76 76 80 85 90 92 92 90 78 72 70 66 62 62 64 61 61 59 56 55 54 55 52 50 48 46 43 40
69 64 67 71 74 76 78 83 85 87 92 92 93 88 80 74 66 62 65 65 59 57 61 60 57 55 54 52 50 48 44 42 39

GFSFLT1_prec_cthk_063.txt.gz
RH
23 23 32 28 24 31 37 40 41 36 33 30 24 28 31 31 32 33 36 39 44 48 42 40 47 47 44 45 47 48 47 45 40
25 25 33 32 31 34 38 38 32 33 32 24 25 30 30 32 32 34 38 40 40 40 38 36 38 39 38 39 44 52 57 57 59
24 24 26 31 34 37 38 36 35 33 29 26 29 32 33 34 34 35 38 41 38 37 34 36 36 35 35 37 39 41 47 51 55
28 26 27 30 33 36 38 37 37 33 31 31 32 34 35 36 38 38 38 39 37 35 37 38 37 36 34 31 30 32 32 36 38
31 30 30 30 31 32 34 33 32 33 36 38 40 40 41 42 42 42 40 39 37 37 36 36 34 34 33 32 31 30 29 29 31
32 32 32 33 33 32 33 34 37 38 39 40 42 44 46 46 46 44 44 41 41 39 36 35 32 31 30 28 26 25 24 22 22
36 35 35 35 35 37 36 37 38 40 41 43 45 47 48 48 46 44 42 42 41 37 34 33 31 31 29 28 26 24 22 21 19
40 39 39 39 39 38 40 42 42 43 43 43 44 45 45 45 43 41 41 41 40 33 31 30 30 30 30 30 28 26 25 24 21
42 42 41 40 42 42 41 42 45 47 47 46 48 48 46 42 37 37 36 37 39 34 33 32 31 31 31 30 29 27 25 25 23
42 44 45 42 44 44 44 45 46 47 48 50 51 50 47 40 35 33 32 32 35 37 37 36 34 34 33 32 31 30 30 30 28
41 42 46 44 45 45 45 48 49 48 49 51 51 50 46 43 38 36 35 35 35 35 36 37 38 38 38 38 37 35 34 34 34
38 40 44 47 47 46 49 51 51 51 53 53 51 50 47 43 41 40 38 38 37 38 38 41 43 43 44 44 44 44 42 40 39
43 41 45 48 49 48 52 53 55 54 54 53 52 54 51 43 42 43 43 43 45 45 43 45 46 48 48 48 47 48 47 45 43
50 48 48 50 51 52 54 55 55 56 56 56 56 57 52 45 45 46 47 46 46 46 48 49 48 49 51 48 47 46 47 47 44
59 57 52 53 54 55 56 59 59 59 59 60 62 60 54 48 49 52 51 48 47 49 51 50 50 50 48 48 47 45 45 43 40
67 68 60 56 59 61 62 64 65 64 64 64 67 65 58 53 53 55 53 52 52 53 53 53 53 51 50 50 48 46 46 44 45
70 71 70 66 66 69 70 72 73 71 71 71 74 70 69 67 64 60 57 57 55 54 56 55 53 52 50 48 47 47 47 47 46
69 70 77 75 74 74 76 76 78 76 78 80 81 80 78 77 74 70 63 62 59 53 55 58 55 55 54 51 51 52 51 48 45
56 60 66 77 78 80 80 80 80 81 84 87 87 89 84 81 80 76 73 69 64 60 58 61 58 56 57 58 56 55 53 52 48
47 50 60 65 68 76 79 79 78 81 84 87 90 90 88 86 84 83 81 80 68 65 61 61 62 64 60 57 55 56 56 54 52

GFSFLT1_prec_cthk_066.txt.gz
RH
22 21 26 26 24 37 47 46 44 36 31 27 25 28 29 30 34 36 37 41 48 47 37 45 47 46 43 48 53 51 52 52 45
23 25 31 28 33 37 39 39 37 32 31 24 26 29 29 34 35 39 41 42 41 38 37 35 37 37 38 41 46 52 57 57 58
23 26 33 33 36 39 41 40 34 33 31 26 31 33 33 36 38 39 42 39 38 36 34 34 35 35 34 37 39 41 46 54 58
26 24 27 32 36 38 39 39 38 37 31 31 34 35 36 40 41 43 46 38 36 38 38 36 35 35 34 33 33 34 34 36 39
28 29 30 31 34 36 37 36 35 32 33 34 37 38 40 44 45 46 44 39 39 39 37 36 33 33 33 32 31 32 31 31 31
31 31 31 32 35 35 35 33 33 36 37 38 39 41 46 47 47 47 41 40 40 38 34 32 30 30 30 29 28 27 26 24 23
36 32 33 34 35 35 35 35 35 36 38 38 40 44 46 47 46 45 41 40 38 34 31 29 29 28 28 27 27 26 27 26 24
35 35 36 36 36 36 36 37 39 42 43 41 43 43 44 43 41 38 38 39 36 33 29 28 28 28 28 27 27 27 27 26 25
43 41 39 39 38 42 44 45 44 42 43 45 46 46 46 45 40 36 32 34 35 34 31 32 32 31 32 29 28 28 28 28 27
46 45 41 40 42 43 45 47 45 47 46 46 47 48 47 44 39 37 33 33 34 34 33 33 35 36 36 35 34 33 33 32 32
46 46 44 41 39 42 46 49 46 48 49 47 49 50 47 43 38 39 38 36 36 35 34 34 34 34 36 39 39 40 38 37 38
45 45 44 42 42 42 45 47 47 50 51 51 52 51 48 43 40 38 43 38 37 36 38 41 41 41 41 42 42 43 44 44 42
43 42 45 45 45 45 45 45 47 51 53 53 53 52 50 49 44 40 38 38 42 41 42 42 42 43 42 43 45 46 47 46 46
48 45 45 47 48 49 48 48 49 53 55 54 54 54 53 55 46 44 43 41 43 45 43 42 44 46 45 45 46 45 44 44 44
51 51 52 54 54 53 53 52 51 55 58 60 58 58 58 56 52 49 50 50 48 47 45 45 47 48 47 47 47 46 45 45 45
57 60 62 63 63 63 60 60 58 59 65 67 65 63 62 61 58 54 55 57 56 53 51 51 50 50 50 48 47 46 45 44 44
56 64 65 65 69 71 67 67 67 67 72 75 73 68 66 67 66 63 62 63 65 62 58 55 53 50 50 50 49 48 46 44 46
54 60 67 69 72 71 71 74 74 74 77 80 81 77 71 72 74 73 71 70 72 73 68 61 60 58 54 55 51 51 51 51 50
45 52 57 62 67 71 75 79 81 82 80 84 83 80 77 77 76 75 74 74 74 75 75 74 70 66 60 60 57 57 54 52 51
43 45 55 57 60 60 61 70 80 81 84 84 84 83 84 84 85 80 79 78 79 80 79 79 74 71 68 63 61 62 60 57 53

GFSFLT1_prec_cthk_069.txt.gz
RH
22 21 21 25 23 39 46 42 38 34 28 23 25 27 30 35 42 40 42 46 48 45 38 47 44 41 44 49 51 56 57 55 52
21 25 25 26 31 39 39 38 35 29 28 22 27 27 31 38 41 41 41 42 41 39 37 35 35 36 37 40 47 51 56 57 57
21 27 27 31 32 37 37 37 35 31 29 24 30 31 33 41 42 43 42 38 38 38 32 32 33 34 34 36 38 42 45 50 55
24 26 31 32 31 33 35 36 34 34 30 30 33 34 36 42 42 44 41 35 36 36 34 31 31 32 33 33 32 33 34 35 38
26 26 28 33 34 35 36 35 34 33 30 31 34 36 38 46 44 46 41 37 38 36 33 30 28 28 28 29 29 29 29 29 31
28 29 30 34 33 35 34 33 32 31 34 36 39 40 47 49 49 47 39 37 37 34 30 26 25 26 26 26 25 24 24 23 23
34 32 31 31 34 35 34 33 32 34 35 35 36 39 46 47 45 42 37 36 35 34 29 26 24 25 25 25 24 25 24 24 24
37 33 32 32 34 34 33 34 35 39 44 42 42 45 49 47 44 39 34 33 32 31 29 27 26 27 28 28 27 27 25 24 24
40 40 35 37 35 39 38 41 43 44 44 44 44 46 48 47 46 40 35 33 30 30 29 28 29 29 30 31 32 31 31 30 29
44 41 42 42 40 41 41 43 47 47 46 45 45 46 47 46 45 38 35 34 32 32 32 30 30 30 31 31 31 33 35 35 35
48 47 45 45 43 41 40 42 43 46 47 45 47 46 46 46 44 38 36 35 34 33 33 31 31 32 35 36 36 37 38 37 38
51 49 46 47 46 44 41 41 42 45 45 45 47 49 48 47 45 40 41 41 36 35 35 35 36 38 38 38 37 38 40 41 43
58 54 50 49 48 45 45 43 44 45 45 45 49 51 49 47 46 44 44 45 43 41 38 39 40 39 39 41 42 41 41 42 43
54 55 54 53 51 48 46 48 48 49 46 47 50 54 52 51 50 49 44 45 48 47 47 44 43 41 41 43 43 43 44 43 43
53 58 58 57 56 52 52 53 54 54 52 52 51 55 56 57 54 55 49 49 49 48 53 53 50 47 46 45 45 44 44 44 43
50 55 59 59 59 58 60 64 65 66 63 59 57 60 62 63 63 61 57 54 54 54 56 57 58 56 52 50 49 46 47 47 46
41 49 55 58 61 64 65 71 70 72 71 67 68 67 67 69 72 71 67 64 63 61 61 60 62 64 63 58 54 53 55 52 50
39 42 49 59 64 67 70 72 74 74 74 75 75 76 74 74 75 78 77 72 72 71 69 67 67 68 67 65 63 67 60 58 56
47 52 50 54 63 66 69 73 73 77 75 79 79 80 80 80 79 80 78 80 77 76 73 74 71 73 72 70 70 72 66 64 60
40 52 58 58 60 64 69 73 76 74 77 75 78 87 88 86 84 81 83 81 82 80 80 78 77 79 77 76 73 76 76 74 71

GFSFLT1_prec_cthk_072.txt.gz
RH
20 19 19 18 31 41 40 38 31 28 23 22 25 29 33 36 38 38 43 45 46 40 41 40 39 36 42 46 53 51 51 55 52
19 22 23 25 31 37 38 36 32 27 23 23 24 28 32 38 38 38 40 43 41 39 35 32 30 32 34 38 42 48 51 52 53
22 24 26 27 33 34 35 34 34 30 27 26 28 31 34 39 39 40 38 36 37 34 31 30 30 31 32 33 35 38 40 45 48
22 26 29 28 30 33 33 33 32 31 27 28 31 33 36 41 40 42 38 35 37 34 32 30 29 29 29 29 29 29 30 31 32
23 24 28 31 30 31 32 33 31 30 27 29 32 34 39 39 42 42 38 34 35 32 31 28 26 25 25 25 24 24 25 25 25
25 26 28 33 31 29 32 32 30 28 29 31 33 36 40 46 46 40 39 33 33 33 29 26 24 23 23 22 22 22 22 22 22
29 28 27 29 31 32 33 32 30 30 32 33 33 37 40 44 40 39 35 31 30 29 27 25 24 24 24 24 24 25 24 23 22
36 34 29 29 29 32 33 32 32 34 36 37 37 42 44 44 42 41 36 32 30 27 26 25 25 26 26 27 27 27 27 25 25
38 36 34 31 30 32 32 33 33 35 40 41 41 43 45 44 41 42 38 33 31 30 28 27 26 27 26 28 29 28 28 28 30
41 38 39 37 34 34 35 36 38 39 39 41 43 44 44 45 41 40 38 33 31 32 31 30 28 28 28 29 30 32 33 32 33
45 44 44 43 43 40 40 38 39 39 39 41 42 43 43 45 44 41 40 35 34 35 33 33 30 31 33 34 35 34 34 34 35
43 44 44 48 50 46 45 43 41 41 40 41 42 42 43 47 46 42 40 38 38 37 37 38 37 36 36 36 36 37 38 37 37
46 46 46 50 52 52 51 48 46 43 43 44 43 43 44 46 48 45 41 41 40 39 40 41 40 42 39 39 37 39 40 39 40
43 45 48 51 53 55 55 54 53 49 46 47 47 48 48 49 50 51 49 44 43 43 45 44 43 48 49 46 44 44 43 43 43
38 39 43 48 49 51 55 57 57 57 55 54 56 57 55 55 55 54 56 55 50 47 48 48 49 51 51 52 52 51 48 47 46
39 39 41 43 47 50 57 58 58 60 65 66 66 66 68 66 63 64 63 64 63 56 55 55 55 57 56 55 57 59 61 56 52
43 42 42 44 51 55 53 57 62 64 69 69 74 72 72 71 73 75 73 73 73 71 66 63 62 62 62 62 61 62 64 61 60
42 46 49 51 55 52 54 60 67 72 74 75 75 76 75 76 77 79 81 81 79 80 78 72 70 70 71 69 68 68 68 67 66
40 47 48 53 53 56 64 68 66 71 76 83 83 82 80 79 77 77 80 85 83 83 84 82 79 75 72 73 75 76 76 72 72
28 36 48 49 55 56 60 68 68 69 76 75 80 85 88 89 87 84 81 84 88 87 87 89 87 83 79 76 78 81 81 78 77

GFSFLT1_prec_cthk_075.txt.gz
RH
18 17 17 27 35 33 34 31 27 21 20 22 28 30 30 32 34 38 42 44 43 37 37 37 35 35 41 47 47 47 55 54 54
16 17 17 26 34 35 35 32 26 22 22 24 28 30 31 37 36 37 38 39 38 34 31 28 27 29 32 35 39 44 48 49 51
18 19 19 25 29 32 31 30 28 26 25 27 31 33 33 33 34 33 35 33 31 29 27 26 26 27 29 31 33 34 37 39 42
22 24 25 27 29 29 29 30 27 26 24 28 31 32 34 34 35 34 33 31 31 29 27 26 24 24 25 26 26 26 27 28 29
23 27 27 27 29 30 29 28 27 27 27 30 31 33 35 37 37 37 36 33 32 31 28 25 23 22 21 21 21 21 21 22 22
25 25 27 28 28 30 29 28 28 27 28 29 30 33 35 35 35 36 33 30 28 28 25 23 21 21 21 21 21 21 22 22 21
28 29 32 28 27 28 29 30 29 29 31 31 32 35 37 37 38 37 36 32 29 27 24 22 21 22 22 22 23 24 25 25 23
34 32 31 33 31 29 30 30 29 30 32 33 34 37 39 39 40 38 38 34 30 27 26 25 23 23 24 24 24 25 25 25 24
40 36 35 35 35 35 33 31 30 31 33 33 35 39 41 42 43 41 38 36 31 28 28 28 27 25 25 25 25 26 27 29 29
40 39 39 39 38 39 38 35 32 33 34 35 35 37 40 42 42 44 42 38 35 31 30 31 29 28 27 28 29 31 31 31 32
41 40 39 42 41 41 45 47 43 41 40 38 38 38 39 41 41 43 45 42 38 35 34 33 32 33 33 33 33 33 32 33 34
43 41 40 43 44 43 44 47 50 50 47 45 42 42 43 43 42 43 46 44 41 39 37 36 35 36 37 38 38 37 36 36 36
40 38 38 43 45 45 45 46 49 52 52 51 50 46 45 47 47 44 46 47 46 43 40 39 39 40 40 42 45 44 42 41 41
35 36 37 39 43 44 45 44 46 50 54 56 55 53 50 50 52 53 52 49 51 51 48 45 44 43 45 46 48 49 51 50 48
38 39 39 39 40 42 43 45 47 49 54 57 58 57 57 59 61 63 65 60 58 58 57 55 55 50 49 51 54 55 55 56 55
40 40 41 43 43 44 46 48 52 54 58 60 60 60 59 61 66 71 73 74 72 70 68 68 66 65 61 58 59 60 59 59 58
42 42 40 44 46 50 49 53 57 59 64 72 75 71 69 66 68 72 77 79 77 79 81 79 78 76 74 71 68 66 65 64 63
49 47 44 45 48 49 54 58 63 70 74 74 81 80 74 76 76 77 77 80 82 82 84 86 86 86 82 80 76 74 73 72 70
43 49 48 47 44 43 49 55 67 65 72 78 79 77 78 80 81 84 85 89 90 89 87 85 85 90 88 85 84 81 80 78 77
33 34 34 34 38 43 48 52 53 59 61 64 74 78 81 84 87 88 87 90 93 95 95 92 90 90 90 89 84 87 86 81 84

GFSFLT1_prec_cthk_078.txt.gz
RH
16 16 24 33 32 30 27 23 17 18 20 24 25 25 26 28 33 37 39 41 35 34 33 31 30 33 40 43 44 49 49 51 49
15 16 20 29 30 29 28 26 21 21 23 26 26 28 28 31 33 35 36 37 35 31 28 24 25 27 30 33 39 42 45 47 49
16 16 20 26 28 28 26 25 24 23 24 27 29 30 30 30 32 31 33 31 28 25 24 23 23 25 26 28 30 31 33 35 37
19 18 20 26 27 28 26 26 25 23 25 28 30 31 32 33 34 33 32 31 29 28 26 24 22 22 22 23 23 23 24 24 24
22 22 24 28 29 29 27 26 25 24 25 26 27 28 30 31 31 31 29 28 26 26 23 21 20 20 19 19 19 19 19 19 20
26 26 31 33 31 32 29 28 27 26 26 28 28 29 31 32 33 34 33 31 28 26 23 21 20 20 19 20 20 21 21 22 22
29 28 30 33 34 34 31 29 28 27 28 28 29 31 34 35 35 37 36 34 31 28 25 23 22 21 21 22 22 22 23 24 25
31 31 32 32 31 33 34 35 31 28 30 30 31 33 35 38 39 40 39 35 32 29 27 26 26 24 24 23 23 24 24 23 24
35 35 34 36 38 38 39 39 39 37 34 33 33 34 36 37 39 41 41 40 36 33 29 28 28 27 27 26 25 26 29 29 30
39 39 38 37 37 40 39 39 41 43 46 41 39 37 38 38 38 41 42 43 42 38 34 32 31 30 30 29 31 32 33 32 32
41 41 39 39 39 38 40 40 41 42 45 47 46 43 42 40 41 41 43 44 45 43 39 36 35 34 33 33 35 36 37 36 35
41 42 41 38 38 39 41 43 42 45 45 47 50 49 47 46 43 44 45 46 45 46 45 41 39 37 37 37 38 41 43 41 40
39 38 37 36 37 40 43 45 46 45 45 46 48 51 52 52 51 50 48 52 52 49 49 48 45 43 41 40 42 45 46 48 48
34 34 34 34 35 37 38 39 41 41 42 44 47 49 51 53 54 53 56 57 61 62 58 54 52 52 52 48 46 48 50 52 53
35 37 38 38 37 38 40 42 45 45 47 50 52 53 54 55 54 55 56 61 67 73 75 71 66 60 60 60 62 58 55 56 59
41 40 39 40 40 40 41 45 48 50 52 57 58 61 65 66 69 68 66 65 69 76 82 83 83 81 75 74 72 75 71 64 64
43 42 46 51 52 49 46 47 50 51 57 59 66 72 73 72 75 78 77 77 78 79 83 87 88 88 86 83 82 80 84 82 73
48 51 52 51 51 50 53 51 48 47 55 67 76 76 71 71 74 77 78 82 85 87 90 91 91 92 90 88 88 88 85 85 81
38 41 46 48 51 52 47 48 44 50 52 60 68 68 64 66 67 73 76 82 87 92 94 95 96 96 96 95 92 88 92 88 84
34 36 39 42 40 35 34 37 45 56 55 56 60 62 64 64 67 66 70 79 86 90 91 94 96 97 97 98 95 94 96 94 93

GFSFLT1_prec_cthk_081.txt.gz
RH
16 21 28 28 27 25 22 16 16 17 19 20 21 23 27 30 32 34 36 34 30 31 29 28 29 35 39 44 45 45 45 45 49
15 18 25 26 25 25 24 20 20 21 23 24 26 28 29 30 31 33 34 34 32 28 26 24 24 27 33 36 38 41 45 46 48
15 17 24 25 26 26 25 22 21 23 25 27 29 31 31 31 32 32 33 31 28 27 26 25 24 24 26 27 28 30 33 36 39
18 18 24 26 27 27 25 23 22 24 26 27 29 29 29 29 29 29 28 27 26 26 25 22 21 21 21 22 23 22 23 23 23
21 22 27 29 28 28 26 25 24 25 27 30 30 30 30 31 30 30 29 28 26 25 23 21 20 20 20 20 20 20 21 21 21
25 25 29 32 33 32 28 27 26 25 28 30 29 30 31 32 33 33 33 32 29 28 25 23 22 21 20 21 21 22 22 22 23
29 28 30 33 34 35 34 34 32 28 28 29 29 30 31 33 35 37 37 37 33 30 28 25 24 24 24 23 23 23 24 24 24
34 32 32 33 33 33 34 35 35 35 35 35 32 33 34 35 35 37 39 39 38 35 31 29 27 27 26 26 25 25 24 25 27
35 34 34 35 35 34 35 37 36 35 36 39 42 40 40 40 39 39 39 40 40 40 37 33 32 31 30 29 28 28 29 31 32
38 37 37 37 37 36 36 36 38 37 37 40 41 43 45 45 45 44 43 43 43 41 41 38 36 34 33 31 31 31 33 36 35
37 38 39 40 37 35 34 33 35 36 36 37 40 42 43 46 47 49 48 47 48 47 44 42 40 38 36 34 34 34 35 39 41
42 41 41 41 40 38 37 36 36 39 41 43 45 45 44 45 47 50 52 53 54 54 54 52 47 43 43 40 36 36 38 40 44
44 42 42 39 37 37 36 37 39 39 41 43 45 45 47 48 48 49 51 54 56 59 63 61 60 56 49 47 47 42 39 42 46
38 39 39 36 36 37 38 38 40 41 42 43 45 48 50 52 54 55 56 58 56 55 59 67 72 72 70 62 60 58 52 48 48
39 36 35 36 41 39 39 41 43 41 42 44 47 51 52 56 59 64 69 71 71 70 69 70 74 80 84 83 80 77 74 65 58
42 38 38 40 40 39 43 49 50 47 47 49 47 48 52 57 68 74 74 76 80 81 81 81 82 85 86 89 90 89 86 86 76
47 49 55 48 44 50 55 53 50 48 54 53 52 56 60 65 67 71 70 71 78 82 84 86 88 90 92 93 93 91 91 93 94
60 57 50 53 56 54 51 51 55 56 56 56 55 62 57 56 62 63 61 65 67 71 73 78 84 86 90 96 97 96 95 96 97
54 56 53 46 45 48 48 52 52 51 46 45 52 62 64 69 62 62 62 60 62 68 71 73 77 83 88 92 95 95 95 95 95
39 38 38 36 37 38 38 39 39 38 42 53 76 63 61 62 64 56 62 57 52 62 60 65 68 77 80 84 96 97 97 97 96

GFSFLT1_prec_cthk_084.txt.gz
RH
22 27 26 25 22 18 16 16 17 19 21 22 26 28 29 31 34 35 34 32 30 28 26 26 30 33 41 42 42 43 44 47 54
17 25 25 24 23 20 18 18 20 22 24 25 28 28 29 32 34 35 36 34 28 25 24 24 24 28 33 34 37 40 42 43 45
16 23 24 24 24 22 21 20 21 23 25 26 27 28 28 29 29 30 30 28 26 26 24 23 22 22 23 26 27 30 33 35 36
19 23 25 25 25 23 22 21 22 23 25 27 27 28 28 30 29 29 28 27 26 25 23 21 19 19 20 21 21 22 22 22 23
22 24 28 29 29 26 24 23 22 24 26 27 28 29 30 31 31 32 31 31 29 27 26 23 21 20 20 20 21 21 21 21 22
26 27 32 32 32 31 30 30 28 27 27 28 29 30 31 32 33 35 36 35 33 30 28 26 23 23 23 22 22 22 22 23 23
29 29 31 33 33 32 32 33 33 32 33 35 35 32 32 34 35 36 37 38 37 36 34 30 27 25 26 25 25 24 23 23 24
33 33 32 34 35 35 36 36 35 33 31 33 36 39 40 38 38 39 40 40 40 40 39 37 32 30 29 27 27 26 25 25 26
35 36 36 35 36 37 35 35 36 34 33 32 34 36 38 41 42 42 43 43 44 44 44 42 38 35 32 31 29 29 28 29 29
37 37 36 35 36 37 35 34 34 33 33 33 35 36 38 39 41 44 46 48 48 47 48 49 45 41 37 35 33 32 31 32 33
38 39 39 40 38 36 35 33 33 34 34 35 37 38 41 42 42 43 45 47 49 50 51 55 55 53 46 42 38 35 33 33 35
37 38 42 41 40 39 37 36 36 35 38 39 39 41 43 45 46 47 50 52 53 54 54 55 57 60 58 54 49 43 39 37 36
41 43 44 43 41 38 36 35 35 36 37 39 40 40 42 44 48 51 53 56 58 60 62 62 63 66 69 68 67 61 56 49 45
41 41 40 40 39 36 35 39 39 39 41 43 43 41 41 44 47 49 52 57 64 69 71 70 69 72 76 79 79 79 74 69 64
40 39 41 41 38 38 39 40 41 43 50 52 48 46 47 45 45 51 58 67 71 76 76 75 74 74 77 82 85 87 86 84 77
43 42 43 43 41 41 45 43 44 52 53 52 48 52 51 49 52 54 63 64 69 70 69 71 76 77 78 79 84 91 93 91 94
53 54 55 54 51 59 54 53 56 55 54 54 57 55 55 50 48 56 56 63 65 63 64 66 68 70 73 76 79 86 89 90 94
64 68 70 67 61 56 61 65 57 56 56 56 59 58 48 45 51 56 62 60 58 59 58 56 59 62 64 67 70 76 83 85 84
59 58 59 58 57 55 54 52 50 49 46 46 46 42 44 51 64 57 55 57 56 55 55 56 56 62 60 61 64 70 73 77 86
55 53 53 54 54 45 40 37 38 39 42 44 39 41 40 50 52 47 48 42 53 47 46 54 48 54 61 64 61 66 72 75 81

GFSFLT1_prec_cthk_087.txt.gz
RH
25 24 23 21 16 15 16 17 18 19 21 25 27 30 32 34 34 33 33 32 27 25 24 26 32 40 39 38 41 41 46 51 51
24 24 23 22 19 17 18 19 21 23 24 26 27 29 31 32 32 31 30 26 24 24 23 22 23 25 31 33 34 36 38 39 40
24 23 23 23 21 19 19 20 21 22 22 24 25 26 26 26 26 26 25 24 24 22 20 19 18 18 19 22 24 27 28 30 31
23 25 24 24 23 21 20 21 21 23 24 24 25 26 27 28 27 28 28 28 26 25 23 21 19 19 19 19 19 20 21 21 21
23 27 28 30 29 27 25 23 23 24 25 27 27 27 28 29 30 32 33 33 32 29 27 24 22 20 21 20 20 20 21 21 21
26 32 32 33 32 30 29 29 28 30 32 34 34 32 32 32 33 33 34 34 34 34 33 30 27 25 23 22 22 22 22 22 23
28 31 34 34 34 33 32 32 32 31 31 33 35 36 37 37 37 37 37 37 37 36 35 35 32 29 28 26 25 24 24 24 24
32 32 35 34 35 35 35 34 34 33 33 32 34 35 35 37 38 40 40 41 41 40 40 39 37 34 31 30 29 27 26 26 27
35 35 35 36 36 35 36 36 35 34 33 32 33 35 36 38 39 40 42 44 44 44 44 45 45 43 37 34 33 32 30 28 29
35 35 35 35 35 36 36 36 35 35 33 32 32 34 36 38 41 43 44 45 47 48 47 48 49 50 51 45 38 35 34 33 31
39 35 34 36 37 36 37 35 34 34 34 32 33 36 38 41 43 45 45 46 48 50 50 51 52 54 56 57 54 49 44 39 38
39 36 36 38 39 38 38 35 35 34 35 35 35 36 37 39 41 43 47 48 50 51 52 54 57 59 60 62 63 63 58 54 50
38 38 39 40 42 40 38 36 34 34 37 37 37 40 43 42 41 44 47 48 49 53 59 63 64 63 61 62 66 70 71 69 66
42 42 42 41 40 39 38 34 35 38 39 39 44 47 48 45 45 46 46 50 56 61 67 69 70 66 62 63 68 70 73 78 80
44 42 41 40 40 39 39 39 38 41 42 42 48 48 45 45 51 51 52 52 56 63 64 69 69 66 64 63 64 69 69 72 80
47 48 47 45 42 43 45 43 46 54 51 52 51 48 50 52 53 54 49 46 57 59 63 63 62 61 59 59 59 62 66 66 68
61 61 62 61 60 58 62 63 62 58 61 63 57 51 47 46 48 41 37 42 54 56 60 57 55 55 56 55 55 59 64 66 66
66 67 67 69 71 72 77 71 64 64 58 57 56 52 44 42 44 37 42 66 65 56 57 53 53 52 53 52 54 60 59 61 68
57 57 60 63 66 64 65 66 61 59 50 46 42 41 44 49 44 42 43 46 48 46 46 45 47 46 52 51 51 58 59 59 67
53 55 57 61 62 63 62 57 52 42 38 37 37 37 41 48 49 49 49 47 43 42 41 37 44 42 46 48 51 53 55 57 58

GFSFLT1_prec_cthk_090.txt.gz
RH
23 20 16 14 14 15 16 17 19 22 25 27 28 29 30 32 32 32 30 25 22 22 22 26 31 35 34 36 41 44 45 47 45
23 21 19 16 16 17 19 20 22 23 24 25 26 27 27 30 29 29 28 22 20 18 17 17 20 22 25 30 31 33 35 34 34
24 23 21 19 18 18 19 20 21 22 24 24 25 25 24 29 29 28 25 23 23 21 20 18 18 17 19 20 22 25 25 28 27
26 25 23 22 20 19 20 21 22 23 24 25 26 26 26 31 31 32 32 27 26 26 23 22 20 19 19 19 19 18 19 19 20
30 30 30 28 27 24 23 25 27 29 30 30 29 29 29 33 33 35 32 31 30 29 28 27 24 22 21 21 21 21 20 20 20
33 35 34 33 30 29 29 29 29 31 32 33 33 34 37 38 37 38 34 33 34 34 34 32 30 28 26 24 23 24 24 23 23
32 34 35 36 33 33 32 33 33 31 33 33 34 37 36 36 37 41 38 38 37 37 37 38 37 34 31 30 28 26 25 26 26
31 33 37 38 36 36 36 35 36 34 33 31 34 35 36 39 39 40 38 39 40 41 42 42 43 42 38 35 33 31 29 27 27
34 37 39 40 39 39 39 41 39 36 34 31 31 33 35 37 38 43 41 40 41 42 43 44 45 46 47 45 42 39 36 34 34
37 40 40 41 40 41 39 36 38 36 35 33 31 32 34 36 39 41 41 42 42 43 44 45 45 46 50 53 53 49 45 41 39
37 36 35 35 33 35 36 37 35 34 34 34 31 33 35 37 38 40 42 42 43 44 43 46 47 49 50 52 56 57 54 50 47
43 38 35 35 36 37 37 37 34 33 32 33 33 32 35 39 43 43 42 43 43 42 44 49 56 57 57 57 56 56 59 61 59
42 40 37 37 38 38 39 38 37 36 32 35 36 36 39 44 44 43 45 46 45 47 52 55 63 61 64 62 59 57 61 62 64
44 41 40 40 39 40 39 37 38 35 35 38 40 41 46 48 47 46 49 49 50 51 48 55 60 62 62 61 58 57 58 59 63
47 44 44 42 40 40 40 39 39 40 40 43 50 48 51 52 49 50 49 50 49 45 43 53 57 60 58 57 56 58 59 57 57
50 48 47 45 44 46 45 44 45 50 53 58 58 56 58 53 51 48 44 44 44 40 43 54 55 56 55 54 52 53 55 58 60
54 53 53 55 59 62 64 63 62 65 69 68 64 61 56 49 48 44 40 44 38 42 53 58 53 53 50 49 52 52 51 55 61
64 67 62 67 69 67 67 68 72 76 74 73 67 62 51 44 41 38 39 44 41 44 51 53 48 49 43 48 45 49 52 56 63
72 67 66 66 63 61 62 67 72 69 69 65 60 53 48 44 45 41 51 47 45 47 46 43 45 41 40 43 45 50 50 49 57
67 64 63 59 58 55 59 62 63 61 59 53 46 41 41 42 42 44 51 50 43 44 44 40 37 37 37 41 41 44 50 52 53

GFSFLT1_prec_cthk_093.txt.gz
RH
18 14 13 13 14 15 16 18 21 24 25 27 28 29 30 32 32 29 22 19 18 17 18 23 25 26 27 30 35 38 37 36 36
20 17 15 15 16 18 19 20 22 22 23 24 25 26 28 30 29 27 22 20 18 17 16 16 16 18 19 25 27 28 29 28 27
23 20 17 17 18 18 19 20 21 21 22 23 24 24 28 30 30 28 24 23 23 22 20 18 18 17 17 17 19 21 22 21 21
25 22 19 18 18 18 20 20 21 22 23 24 25 25 28 31 32 34 27 26 26 25 25 24 22 21 20 20 20 20 19 19 19
28 26 24 22 21 22 23 24 26 28 29 30 31 32 35 37 36 34 31 31 31 30 29 28 26 25 24 23 23 22 22 21 21
34 32 31 29 27 26 25 26 28 30 30 30 31 33 38 38 38 38 35 35 34 33 33 34 32 31 28 26 25 25 25 25 24
38 35 35 35 31 30 30 30 30 30 34 32 32 36 38 38 39 38 35 34 35 36 37 38 37 37 35 33 31 30 28 28 28
39 39 39 39 35 33 33 34 34 37 36 36 34 35 38 39 40 38 37 36 37 38 38 39 38 40 40 38 38 37 36 34 33
40 40 41 40 40 40 40 41 41 38 36 36 34 35 35 37 38 39 37 38 39 40 40 39 38 38 40 43 45 44 42 40 38
43 43 43 42 42 42 42 41 42 42 40 36 33 32 33 37 38 39 39 39 39 39 40 38 38 40 42 46 49 51 48 44 41
46 46 45 43 42 42 42 42 40 41 40 37 35 32 33 32 36 40 42 39 39 39 39 39 43 47 50 51 50 51 51 50 49
48 47 46 42 41 40 40 41 39 39 38 36 34 34 35 35 38 42 42 42 42 44 44 45 47 48 55 55 56 55 53 51 53
53 51 48 43 42 40 41 40 42 39 40 37 35 35 37 40 45 47 46 46 47 44 46 46 45 45 54 56 56 55 54 54 55
57 56 52 44 41 40 40 41 41 41 39 38 39 41 46 50 51 51 50 49 47 45 43 45 45 44 52 54 56 55 52 52 53
58 59 57 48 43 42 42 42 41 39 41 42 45 49 57 57 55 53 51 50 48 42 44 44 43 48 54 52 52 54 51 54 53
63 66 62 53 46 46 47 47 50 52 55 57 59 64 65 61 59 54 49 52 48 42 43 42 46 51 54 52 52 50 47 53 59
69 69 62 57 51 50 54 61 65 65 66 67 73 75 73 68 62 52 47 46 42 40 44 46 50 53 54 49 48 43 45 44 49
73 69 67 64 61 62 63 68 67 67 65 69 78 73 70 65 57 49 41 39 39 48 47 48 50 48 46 47 45 43 44 45 50
79 82 82 76 73 72 70 70 68 68 66 68 69 65 62 57 49 44 40 38 42 50 48 48 46 47 42 42 38 38 41 45 48
90 89 88 85 79 75 73 68 64 59 60 62 57 55 55 48 45 43 45 47 42 43 45 46 46 42 36 35 34 36 39 39 42

GFSFLT1_prec_cthk_096.txt.gz
RH
12 12 12 12 13 15 18 20 22 23 25 26 25 26 26 26 21 18 17 16 16 16 17 19 22 23 24 26 27 28 28 26 25
14 14 15 16 17 18 20 20 20 21 22 23 24 27 27 25 21 20 20 20 19 18 17 17 17 17 19 21 22 22 22 21 19
17 16 17 18 18 18 19 19 20 20 22 22 23 26 27 27 26 24 23 23 23 23 22 21 20 20 19 19 19 19 20 19 19
20 17 17 17 18 18 19 20 21 22 24 26 26 29 29 32 31 28 28 27 27 26 26 25 25 24 23 22 21 21 21 21 21
22 20 18 19 20 22 24 25 26 27 27 28 28 32 34 35 34 32 32 31 32 32 32 31 30 29 27 25 24 24 24 24 23
28 28 26 25 24 24 25 27 28 28 28 29 30 33 36 36 36 36 34 34 33 32 33 34 35 33 31 30 29 29 29 28 27
34 32 32 30 29 29 29 29 29 30 31 31 31 33 36 35 35 35 35 35 36 35 35 35 35 35 34 34 33 34 34 34 32
40 36 35 33 32 32 32 32 33 33 36 35 33 35 35 36 36 36 36 37 37 36 35 34 34 33 35 37 39 39 38 38 36
39 39 37 35 36 36 35 38 39 36 35 34 33 33 34 33 35 37 37 38 36 35 35 34 33 34 37 40 44 44 43 42 39
41 43 42 39 40 39 39 41 41 39 38 36 32 31 30 33 33 35 38 38 37 37 38 39 37 40 42 44 48 47 50 48 44
47 46 47 46 43 42 42 41 39 40 39 38 36 30 30 31 33 36 41 42 43 42 41 40 40 42 40 43 51 51 50 49 48
51 50 49 47 46 41 39 39 38 37 39 36 36 33 31 36 39 42 45 46 46 43 42 42 41 42 45 42 50 53 52 52 50
52 53 53 50 49 42 39 37 35 34 37 36 36 35 36 39 45 51 54 49 45 43 43 43 41 46 46 47 52 51 52 53 50
54 56 56 53 51 46 38 36 36 37 37 37 36 38 42 48 55 57 57 53 49 44 42 42 40 41 41 47 53 54 51 53 50
57 57 58 57 52 50 41 38 40 40 41 42 45 50 54 60 65 66 64 61 50 45 45 42 40 42 43 46 52 52 52 57 47
59 58 60 60 60 60 50 44 43 46 51 59 61 61 64 68 72 70 68 62 50 44 45 44 44 44 45 49 51 51 53 48 48
64 62 63 64 69 66 59 52 49 52 58 62 63 61 64 71 71 67 63 54 49 43 44 47 50 50 46 49 49 48 47 44 41
80 77 72 74 75 71 66 61 59 60 64 67 67 68 66 68 65 60 58 52 45 45 48 52 52 48 46 50 47 43 44 43 43
90 88 88 86 85 83 82 80 80 78 76 77 69 66 66 65 64 60 55 48 43 47 51 50 49 44 48 46 42 36 37 38 40
88 89 87 85 83 82 82 87 86 84 78 73 69 61 65 71 63 57 51 46 47 51 50 48 43 42 42 39 33 33 34 38 38

GFSFLT1_prec_cthk_099.txt.gz
RH
12 12 12 13 14 18 20 21 23 25 24 24 25 24 21 19 18 18 18 19 18 18 17 17 18 20 22 23 23 22 21 19 18
13 14 15 16 20 20 20 20 21 21 22 24 26 25 23 21 21 21 22 22 21 21 21 20 20 21 20 20 20 19 19 19 19
15 17 18 18 18 18 18 19 20 22 23 25 26 26 26 25 25 26 27 26 26 25 25 25 24 23 22 21 21 21 21 21 21
17 18 17 16 17 17 18 20 23 25 27 29 28 29 29 29 28 30 30 30 30 30 30 30 29 28 26 24 23 24 24 24 24
17 17 17 18 20 22 23 24 26 26 27 29 30 31 31 31 32 32 33 33 33 33 34 34 33 31 30 28 27 28 28 28 27
21 21 21 23 24 25 26 27 27 27 28 28 30 32 32 33 32 32 33 33 35 35 35 35 34 33 31 30 30 32 33 31 31
28 28 28 27 27 27 28 29 29 30 30 30 32 33 33 33 33 32 33 34 35 34 33 33 33 32 32 33 34 36 37 35 34
32 30 31 31 31 31 31 31 31 32 32 33 33 34 33 32 32 34 34 34 34 35 35 35 35 34 36 37 39 42 42 40 38
37 35 33 34 34 34 34 34 35 34 34 34 32 32 31 30 31 32 34 37 37 39 39 38 38 40 40 37 37 44 46 45 43
40 39 39 39 38 36 37 36 37 38 36 35 33 30 29 29 29 32 37 39 42 42 40 38 38 41 44 41 39 42 49 48 47
43 44 44 44 43 43 40 37 37 36 36 37 35 33 28 28 31 37 41 46 47 43 41 39 38 38 42 47 44 42 50 49 48
47 49 50 49 47 47 45 41 35 34 32 34 34 33 30 31 34 41 47 52 51 48 44 41 41 44 45 44 44 47 53 52 50
47 48 51 52 52 50 47 42 37 35 34 34 33 33 33 35 41 50 55 58 58 56 48 41 42 41 41 44 44 53 57 55 53
47 47 49 51 53 53 50 47 41 35 37 38 37 37 39 46 54 59 65 65 64 60 49 41 41 43 45 44 41 53 58 59 56
53 52 51 51 53 54 52 52 50 42 41 44 46 49 56 59 61 65 69 67 65 58 49 41 42 43 52 47 42 46 56 63 60
65 60 58 55 55 54 54 59 60 55 46 46 51 56 58 59 62 68 69 67 62 54 48 42 44 46 54 52 44 46 50 47 45
78 74 71 69 62 60 59 63 66 64 58 53 56 59 61 62 64 67 66 67 58 54 49 45 47 49 52 49 42 49 46 43 43
91 90 84 82 78 73 74 72 69 72 72 69 66 68 67 67 63 63 70 64 63 55 48 45 50 51 50 45 44 45 42 36 38
94 94 91 92 92 86 90 89 88 87 85 90 90 87 82 74 73 69 68 66 58 54 48 50 51 49 46 44 44 44 37 33 35
93 90 90 93 92 88 88 92 92 91 88 88 91 92 90 75 68 67 67 60 64 54 50 49 48 45 42 40 38 37 31 32 35

GFSFLT1_prec_cthk_102.txt.gz
RH
12 12 12 13 16 17 21 23 23 23 21 21 21 20 19 19 20 20 21 20 20 20 20 20 21 22 22 21 19 19 19 18 19
12 13 15 18 19 19 20 21 20 21 21 22 22 21 22 22 23 24 25 25 24 24 24 23 23 22 22 21 20 20 20 20 21
14 16 18 19 18 17 18 19 20 23 25 25 26 28 27 27 28 28 28 28 28 28 28 28 27 26 25 25 23 22 23 23 23
17 17 17 17 16 17 20 23 24 25 26 28 27 29 30 30 30 31 31 31 32 32 32 31 30 29 28 27 26 25 27 27 26
18 17 18 19 20 21 23 24 24 26 26 27 28 29 31 32 31 32 32 32 33 33 32 33 32 31 30 30 28 27 29 30 30
18 20 21 23 24 24 25 26 27 27 28 29 31 30 30 31 31 31 32 32 32 32 32 33 33 32 32 33 33 32 32 32 33
22 24 26 27 27 28 28 28 29 29 29 30 32 31 30 30 31 32 32 31 32 35 35 35 35 36 37 37 38 37 37 35 35
27 27 28 28 29 29 29 29 29 30 30 30 31 30 29 28 28 29 32 34 35 37 37 36 36 38 40 39 37 38 40 40 40
33 32 32 32 31 31 31 31 31 32 32 30 31 29 27 27 27 27 32 37 39 41 40 38 37 38 39 42 41 40 40 44 44
39 39 38 37 36 36 35 35 35 34 34 34 32 31 27 26 27 30 35 40 47 45 41 40 38 40 42 46 46 43 43 45 48
42 43 44 43 42 41 41 40 38 36 34 34 34 33 30 28 29 32 38 46 51 52 49 45 39 44 46 45 48 44 45 49 51
41 44 46 48 50 50 47 44 43 37 35 33 34 34 33 31 34 38 44 53 60 60 58 52 43 41 41 46 52 50 52 57 56
44 45 46 49 50 51 52 51 48 45 36 34 35 34 35 35 37 43 52 61 66 65 63 55 45 38 40 49 53 58 58 60 61
49 50 49 50 50 52 53 54 53 51 47 38 38 39 41 45 50 55 61 67 69 65 64 54 42 39 41 46 61 58 67 64 65
57 55 55 55 54 54 53 52 53 53 56 52 45 43 47 51 54 59 64 70 69 65 61 56 45 43 44 46 49 48 49 59 66
67 65 61 59 59 58 57 56 55 55 59 61 59 53 50 55 58 62 64 71 68 68 62 56 50 46 46 48 51 49 42 54 57
74 73 72 71 70 71 74 73 70 62 64 63 62 64 61 60 62 65 66 67 67 70 63 61 53 49 49 48 49 45 40 43 42
76 77 78 80 80 80 85 87 86 83 83 85 79 75 72 73 73 74 74 72 73 66 65 61 56 51 49 47 44 42 42 44 42
87 87 91 91 91 88 88 88 87 89 91 94 94 93 92 89 91 87 80 75 71 77 72 67 56 54 50 45 42 40 37 39 37
89 90 94 98 95 96 97 96 95 94 92 89 92 92 96 94 94 97 81 73 86 73 71 63 56 56 50 45 43 40 38 37 33

GFSFLT1_prec_cthk_105.txt.gz
RH
12 12 12 13 16 20 21 20 18 19 18 18 18 18 19 19 20 21 21 22 22 22 22 22 22 22 21 20 20 20 20 20 21
12 13 15 17 19 20 19 18 18 19 19 20 21 22 23 24 25 26 26 26 26 27 27 26 26 25 24 23 22 22 22 23 25
14 16 18 19 18 18 17 18 21 24 24 25 24 25 26 27 28 29 29 29 29 29 29 28 28 27 26 25 25 25 25 26 26
17 18 17 17 17 20 22 23 23 24 24 26 26 27 28 28 29 29 29 29 30 30 30 30 30 29 28 27 27 27 27 28 28
17 16 17 19 21 22 23 24 24 25 26 26 27 27 28 27 28 28 29 29 29 30 30 31 31 31 32 32 31 30 30 30 30
17 19 21 22 24 25 25 26 26 27 28 29 29 27 26 27 28 29 30 30 30 32 33 32 31 34 36 37 35 33 33 33 33
21 24 25 26 27 27 28 27 28 29 29 30 31 31 28 28 27 29 30 33 34 35 35 35 34 34 36 38 38 36 35 35 36
25 27 28 29 30 30 30 29 29 28 30 31 31 30 29 29 28 28 30 34 37 39 38 37 37 36 36 38 41 41 38 37 39
28 29 30 30 30 30 30 30 30 30 31 31 31 32 29 28 28 30 33 37 42 46 45 41 39 38 40 42 43 44 43 40 42
36 36 37 37 36 36 36 35 34 32 31 30 32 33 32 28 28 31 35 40 45 51 54 53 48 42 40 41 44 47 46 44 47
40 42 43 44 44 44 43 43 43 42 36 34 33 33 33 30 31 34 37 42 50 59 61 59 58 50 38 41 46 51 52 53 54
41 43 44 46 47 48 49 50 49 47 45 40 36 35 35 32 32 35 39 45 55 65 68 65 65 49 39 47 60 57 59 61 60
45 45 46 48 49 50 51 52 52 52 51 50 45 39 39 38 37 40 46 52 60 68 70 65 57 48 49 56 61 69 67 65 65
52 52 53 54 55 53 53 53 53 52 54 54 54 50 46 44 45 49 52 56 62 70 71 66 59 47 43 52 59 59 59 64 65
59 59 58 58 57 57 57 57 56 56 56 54 54 56 56 55 55 55 58 60 63 67 70 67 63 52 48 47 48 54 61 59 60
65 65 65 65 66 65 64 64 64 64 65 67 62 59 59 59 62 64 65 65 66 66 65 67 66 62 55 50 49 47 48 45 47
69 69 69 69 72 73 72 71 73 76 80 81 81 72 65 64 67 71 74 75 71 75 73 69 69 67 58 50 49 48 48 42 39
71 72 75 79 79 75 73 80 88 87 89 89 93 90 89 85 85 86 85 86 86 90 76 76 69 80 66 56 51 49 46 43 42
80 82 83 85 88 85 84 91 95 91 90 93 95 94 95 91 93 90 91 94 92 82 74 88 82 73 69 59 52 50 46 41 38
84 83 85 89 91 92 95 93 98 98 97 95 97 97 96 97 97 95 94 96 94 90 91 94 82 73 61 59 52 51 48 45 42

GFSFLT1_prec_cthk_108.txt.gz
RH
12 11 12 14 18 23 20 17 15 16 16 17 18 19 20 22 23 23 24 24 24 24 24 24 23 23 22 21 20 20 22 24 24
12 12 14 18 20 18 17 16 16 18 20 22 21 22 23 24 25 25 26 26 27 27 27 27 26 26 25 25 24 23 24 25 29
13 15 17 19 18 16 16 19 21 22 23 23 23 25 26 26 27 27 27 28 29 28 28 28 27 27 26 27 27 26 26 28 30
15 17 17 17 17 19 21 22 22 23 25 25 25 26 27 27 27 28 28 27 28 29 29 29 28 29 30 30 30 29 28 28 29
17 17 17 20 22 22 23 24 25 25 26 27 27 26 26 28 28 29 29 29 30 30 30 30 31 31 32 32 32 32 30 31 31
17 18 21 23 25 26 26 26 27 27 27 28 28 26 27 27 28 29 30 31 32 33 33 32 32 31 32 34 34 34 33 32 33
19 21 24 25 26 27 27 26 27 29 29 29 29 29 28 27 27 28 30 33 35 36 35 36 34 33 34 36 37 38 37 35 34
22 24 26 27 28 28 28 28 28 28 30 31 31 31 28 28 28 29 31 34 39 42 43 45 42 40 40 40 39 40 41 40 39
26 27 29 30 31 31 31 31 30 29 30 30 31 32 31 28 27 28 32 35 40 44 49 52 52 48 40 38 42 42 45 44 44
31 33 34 36 36 36 36 35 36 36 35 32 31 32 33 30 29 31 33 36 40 46 55 58 59 56 44 40 44 49 50 51 51
37 37 38 39 40 42 42 42 42 43 42 40 37 34 33 32 30 31 34 38 41 48 58 63 67 62 50 49 56 58 59 60 59
39 39 40 41 42 44 45 47 48 50 49 47 46 45 42 39 35 35 39 44 48 54 61 67 69 63 50 54 58 62 65 64 64
42 44 45 46 46 46 47 49 49 49 49 49 49 49 49 48 46 41 43 49 54 58 64 68 70 61 54 55 63 69 69 65 62
50 49 49 51 51 51 52 53 52 52 53 52 52 51 49 52 53 53 54 53 58 61 66 69 68 62 55 51 52 57 67 69 65
53 54 55 56 56 57 58 59 59 58 58 59 60 61 64 64 59 57 60 63 66 66 66 66 67 65 63 56 53 50 53 55 60
60 59 60 61 63 62 62 65 66 67 68 69 71 73 75 77 75 66 60 64 69 75 76 74 72 71 68 66 53 51 50 50 48
65 71 69 69 67 67 70 75 76 74 72 79 86 88 86 83 82 77 76 78 83 84 89 92 90 81 74 74 64 55 49 48 45
77 76 79 74 73 77 82 84 84 84 87 93 96 94 94 92 90 90 88 88 87 91 91 90 87 92 84 75 66 61 54 49 47
84 82 82 83 81 83 88 93 94 93 90 96 96 96 95 97 96 93 93 93 93 93 92 94 95 95 93 79 77 62 52 48 51
80 83 85 89 93 95 95 93 90 86 86 85 82 85 92 98 98 98 97 93 95 95 94 95 96 97 89 78 70 62 59 53 51

GFSFLT1_prec_cthk_111.txt.gz
RH
12 11 13 20 20 19 16 14 14 14 16 18 19 20 21 22 23 23 23 24 24 24 24 24 23 24 24 24 25 25 25 27 25
12 13 15 20 19 16 15 15 16 18 20 21 21 22 24 25 26 26 26 26 26 26 25 25 25 25 26 26 27 27 29 29 29
12 14 19 19 17 16 17 18 20 21 21 22 23 25 26 26 26 26 26 27 26 26 26 24 25 26 28 28 28 28 30 29 34
14 17 18 18 18 19 21 21 22 22 23 24 25 25 25 26 26 26 27 28 28 27 26 26 26 27 29 29 29 29 29 30 34
17 17 17 20 21 21 22 22 23 23 24 25 25 25 25 26 26 27 28 29 29 29 28 27 27 27 29 30 31 32 32 32 31
16 17 19 22 23 24 25 24 24 24 26 26 25 25 24 25 26 27 29 30 31 31 31 30 29 30 31 34 34 35 35 35 33
17 20 22 24 26 27 27 27 26 27 27 28 27 25 25 24 25 26 28 30 34 36 38 39 39 38 34 34 36 38 38 38 38
20 22 24 24 27 28 28 28 28 28 28 29 29 28 26 24 25 27 29 32 35 39 43 46 46 45 40 36 37 39 42 41 41
24 25 27 27 28 29 30 30 30 30 30 29 29 30 29 27 27 28 30 32 35 39 44 50 52 53 49 46 44 46 47 48 50
27 29 31 31 32 34 34 35 35 36 36 36 34 32 32 30 28 29 32 34 37 41 46 52 55 56 52 49 51 52 53 57 57
33 35 36 36 37 38 38 39 40 42 43 42 42 41 40 38 34 32 34 37 41 45 52 60 64 63 59 53 51 55 60 61 61
39 39 39 38 38 39 40 41 43 46 48 48 47 48 48 49 48 42 42 41 45 51 55 60 63 65 62 53 50 58 61 63 65
39 40 41 42 43 44 44 46 48 50 50 50 50 50 49 48 50 49 47 49 53 55 58 60 62 61 58 56 56 54 56 61 65
44 46 48 48 48 50 51 52 54 55 56 56 55 55 56 57 59 64 66 60 58 60 66 68 66 62 62 59 51 52 52 54 59
51 52 54 53 54 56 58 60 61 61 63 63 64 63 64 68 70 73 74 73 68 63 67 72 71 69 73 69 70 63 54 49 52
53 55 56 59 62 63 66 67 66 67 70 72 72 70 75 79 82 83 80 80 76 74 77 81 86 88 88 89 81 69 59 53 51
56 58 61 63 64 69 71 70 73 76 81 80 79 80 84 91 89 87 88 88 88 87 87 89 91 95 90 91 90 80 65 60 55
66 71 73 78 81 85 81 81 87 91 87 88 88 86 84 85 90 91 90 89 89 92 92 91 91 91 91 96 94 87 74 69 64
76 83 85 86 88 89 93 96 95 90 84 82 83 83 79 84 85 88 92 93 96 96 94 92 93 93 96 97 95 89 76 68 59
88 88 91 91 95 92 95 90 82 84 79 78 76 67 67 70 79 84 94 95 96 95 94 89 90 93 95 97 95 87 85 70 72

GFSFLT1_prec_cthk_114.txt.gz
RH
23 21 22 21 19 18 15 14 14 14 15 17 18 19 20 22 26 27 25 25 24 23 23 23 23 23 24 25 26 29 28 30 30
13 22 21 20 19 15 15 14 15 17 19 19 19 21 23 25 26 30 28 25 24 24 23 23 23 24 25 27 29 29 29 32 34
14 22 21 20 16 15 15 18 19 20 20 21 21 23 23 24 24 25 25 25 25 24 23 24 25 25 26 27 28 29 31 34 34
16 22 21 18 16 17 19 21 21 21 21 22 22 23 24 24 25 29 26 26 25 25 25 24 24 24 26 27 29 30 31 32 36
21 23 20 18 19 21 21 21 22 22 22 22 23 23 24 26 27 29 28 28 28 27 27 27 27 27 27 30 31 32 33 33 34
24 24 20 21 22 22 23 23 24 24 23 22 22 22 26 28 29 28 28 30 32 33 35 36 36 34 32 30 31 33 34 35 35
27 24 24 23 25 26 26 26 25 26 27 25 23 27 26 27 28 26 27 30 32 36 39 41 42 41 40 37 36 36 39 39 39
26 28 30 27 28 28 29 29 28 28 31 29 32 30 29 28 26 26 27 29 32 36 39 42 45 45 46 46 43 43 43 45 46
29 31 33 30 33 30 29 31 30 30 30 32 32 33 32 30 30 28 29 32 34 36 40 44 47 48 48 49 47 46 48 51 52
31 33 35 36 33 33 34 35 35 35 36 35 36 36 37 35 33 35 32 34 37 41 45 49 52 55 55 55 53 49 52 54 56
34 35 36 36 35 36 38 39 39 40 43 42 41 41 42 43 43 42 41 41 43 45 48 52 55 55 51 54 55 54 55 57 57
32 34 37 38 39 39 40 41 44 48 46 49 47 47 47 47 48 46 46 44 45 48 53 59 58 55 52 51 51 52 50 55 56
38 41 41 41 41 41 43 45 48 52 51 51 49 49 48 49 49 51 54 56 57 59 62 65 68 65 61 60 59 51 50 51 52
44 43 43 43 44 45 47 49 52 53 54 53 52 52 53 54 53 55 61 66 69 69 68 70 70 69 69 67 68 72 68 59 51
43 44 45 48 50 51 52 55 57 59 58 58 58 60 61 62 65 66 69 73 74 74 76 78 75 73 76 82 84 82 77 68 63
48 51 55 57 58 58 60 63 64 64 63 64 66 67 72 73 74 77 79 82 81 80 81 84 87 86 88 87 90 88 87 80 66
54 56 59 59 59 62 64 65 68 69 69 68 76 77 80 74 77 79 82 85 84 83 85 85 91 92 90 89 91 90 89 87 75
58 60 60 61 63 66 67 70 76 79 75 78 81 77 75 69 68 73 78 81 87 88 88 88 89 90 89 90 93 94 93 91 85
63 65 65 68 76 81 82 88 88 83 79 84 65 64 69 64 57 56 67 71 74 83 92 92 93 93 92 91 93 93 95 93 87
72 74 75 81 87 92 92 90 82 80 62 67 64 54 56 53 54 55 58 66 68 74 82 88 90 87 86 86 88 92 92 91 90

GFSFLT1_prec_cthk_117.txt.gz
RH
38 32 31 26 20 16 16 16 15 14 16 17 18 20 24 28 28 25 24 22 22 22 22 22 22 23 23 27 27 30 32 32 32
29 30 23 22 20 15 14 15 15 17 18 19 19 22 27 29 29 28 23 23 22 22 22 23 23 23 24 26 26 29 30 35 36
26 24 23 20 16 15 15 16 19 19 19 20 21 23 27 28 28 24 24 23 22 22 22 22 22 23 23 25 27 30 30 34 35
23 25 23 19 16 15 17 20 21 20 21 21 21 23 26 29 29 27 24 24 23 23 23 24 25 24 25 26 27 30 31 34 36
27 24 24 18 17 18 21 21 21 22 21 21 22 23 28 30 30 26 26 26 28 29 30 32 32 31 29 28 29 30 32 33 33
29 27 21 19 21 22 23 23 22 22 21 21 21 24 28 28 29 25 27 28 29 32 34 34 36 37 38 36 33 32 34 35 36
31 26 22 22 24 25 26 26 26 25 24 23 24 26 27 27 28 25 26 27 29 31 34 35 36 38 41 42 39 38 38 38 40
35 27 25 25 26 27 28 28 29 33 33 30 32 33 29 28 28 25 27 28 31 33 36 38 40 41 45 47 46 40 41 46 46
35 29 28 28 30 31 31 32 34 33 33 35 35 35 32 31 31 28 29 30 33 36 41 44 44 45 47 48 49 48 47 50 49
29 31 33 35 36 35 36 37 38 38 38 39 39 40 41 40 39 37 34 36 37 40 43 46 46 46 45 45 46 49 52 51 52
31 34 39 38 43 40 39 40 41 42 42 42 42 42 43 45 47 47 43 43 42 43 44 49 53 55 54 50 49 51 50 50 53
37 40 44 45 43 42 43 43 43 44 46 46 46 47 48 47 47 49 50 47 47 49 54 58 62 64 62 62 59 53 52 56 54
43 45 45 45 46 46 46 45 46 49 51 53 51 50 49 49 49 47 48 52 56 59 63 65 68 72 72 69 63 61 70 68 63
40 44 45 47 47 47 47 49 51 53 54 52 51 49 49 51 55 57 58 60 63 69 70 70 70 75 75 72 72 79 81 81 78
42 46 49 49 49 50 50 55 54 57 58 53 52 53 57 61 66 68 70 71 71 74 76 74 74 76 80 83 84 85 83 83 83
45 49 51 51 51 54 53 54 56 57 58 57 60 62 66 67 70 68 71 74 72 73 75 81 82 80 83 85 86 85 86 87 84
45 50 52 54 56 58 58 59 60 61 63 68 69 72 74 69 69 64 62 66 72 73 75 77 77 79 85 88 89 87 85 86 84
48 54 56 57 57 60 60 61 61 66 74 75 77 80 75 72 66 58 54 55 57 61 65 67 72 80 81 85 88 89 90 90 86
53 56 55 57 58 61 61 67 76 85 87 80 74 74 62 58 56 52 51 52 56 60 65 64 69 74 75 79 84 88 91 91 92
54 56 58 62 63 66 75 82 88 87 88 77 63 67 63 58 55 51 49 52 56 56 61 64 67 70 68 69 72 73 75 82 89

GFSFLT1_prec_cthk_120.txt.gz
RH
36 35 30 21 21 21 17 14 14 15 16 16 18 23 26 24 23 22 22 21 20 19 20 21 21 23 23 24 28 33 33 34 36
30 37 33 19 17 17 15 14 14 17 19 19 22 26 27 26 23 22 22 20 19 19 19 20 21 22 22 26 27 33 34 36 37
32 36 26 19 16 14 14 15 17 19 20 21 23 26 26 24 22 22 21 20 20 19 21 21 22 22 23 24 26 30 33 35 38
34 29 22 19 15 15 15 18 20 20 21 21 22 26 27 25 23 23 23 22 24 26 27 27 28 28 27 26 26 29 29 33 34
34 27 22 18 16 16 18 20 21 21 21 22 23 25 28 28 25 25 26 27 28 30 31 31 33 34 35 33 31 30 28 30 34
29 27 23 18 17 19 21 21 22 22 21 22 25 26 28 26 24 25 26 27 29 30 30 32 32 34 36 36 36 34 33 34 37
28 28 24 20 20 22 22 22 23 22 22 23 26 25 26 26 24 24 25 27 29 31 33 34 35 38 41 42 43 41 38 39 40
29 28 27 22 24 24 25 25 26 25 25 28 28 30 27 25 25 25 26 28 31 34 37 38 38 40 41 41 41 43 44 45 45
30 27 23 23 25 27 27 28 31 32 33 33 32 33 32 31 30 29 30 32 34 37 40 43 43 42 41 41 43 47 49 47 47
30 27 25 26 27 29 30 31 34 34 36 38 38 39 39 40 37 38 37 38 40 43 46 48 48 47 49 52 53 54 54 53 51
32 29 28 30 33 32 34 37 38 39 40 40 41 40 43 43 44 44 44 43 45 46 48 50 57 61 62 60 60 58 55 59 59
32 29 30 34 42 37 39 40 40 41 43 44 45 44 43 44 44 47 47 46 46 49 52 58 66 67 66 67 67 62 64 65 68
35 34 38 41 41 42 40 41 42 44 45 48 49 48 48 49 50 50 51 53 54 56 59 63 70 73 72 74 75 76 82 78 77
33 36 44 43 43 43 42 42 43 46 48 50 50 50 50 51 55 59 60 62 63 63 67 70 69 72 77 83 85 88 90 84 84
41 42 42 43 42 42 42 41 47 51 52 51 50 52 56 58 60 66 67 68 68 65 66 70 70 69 73 76 79 82 84 81 79
39 40 40 42 40 42 42 46 51 54 55 53 55 61 61 63 64 64 64 61 62 61 64 59 62 68 75 75 78 83 85 84 83
37 38 41 42 44 46 48 52 53 55 55 56 64 68 72 75 71 66 62 54 52 52 56 58 58 65 68 70 75 77 81 81 86
38 39 43 46 49 50 52 56 57 57 58 64 68 71 75 77 73 65 59 52 50 53 54 57 59 63 63 67 71 71 70 72 75
40 42 48 50 53 54 58 61 60 59 67 76 80 73 74 68 66 56 52 48 46 49 52 53 59 63 64 61 63 60 62 66 68
38 46 55 52 57 59 61 62 62 68 75 81 83 75 68 61 61 57 51 43 44 47 50 49 49 54 52 54 53 54 55 58 60

GFSFLT1_prec_cthk_123.txt.gz
RH
38 26 27 31 26 23 16 14 14 17 19 19 22 24 24 23 21 21 20 19 19 19 19 23 25 26 27 31 31 31 32 34 34
38 27 27 26 21 16 14 14 14 15 17 20 21 22 22 21 21 21 19 19 19 19 20 20 21 24 27 30 31 31 30 32 35
38 34 27 21 19 15 14 15 16 18 20 22 23 22 23 22 21 20 20 20 22 23 24 25 25 27 28 27 31 30 30 33 30
43 39 28 19 18 15 15 17 18 19 21 22 23 23 22 22 22 21 23 25 27 28 28 29 30 31 30 30 31 29 33 32 33
44 40 27 20 18 16 17 20 20 20 20 21 22 24 24 23 24 24 25 27 28 27 28 28 30 31 32 32 31 30 32 34 37
42 36 25 20 19 19 21 22 21 21 21 23 25 25 25 24 24 24 25 27 28 29 29 31 33 34 35 35 35 35 36 39 40
37 31 24 20 20 22 23 23 22 22 23 24 25 24 23 23 23 24 26 27 30 32 33 33 34 34 34 34 34 37 42 43 43
36 28 23 20 21 23 24 23 22 22 24 25 25 24 24 23 24 26 28 30 32 35 37 38 39 40 40 39 41 46 47 49 47
33 27 22 20 23 25 25 25 25 25 27 28 28 27 28 30 30 31 32 34 37 39 42 44 46 45 45 51 54 54 55 55 57
30 28 23 22 25 26 27 28 29 30 30 32 35 38 37 38 38 38 38 40 42 43 45 47 49 51 56 56 58 58 55 61 64
30 29 24 25 27 27 29 29 30 31 34 37 40 41 41 42 41 43 45 45 44 45 46 49 54 60 62 63 62 61 63 67 69
31 29 26 26 28 29 31 31 32 35 37 39 40 41 42 43 44 44 45 46 47 49 52 55 61 67 70 68 71 69 72 74 75
33 29 28 30 31 32 32 34 36 37 40 43 43 45 45 47 48 49 50 50 52 56 56 60 64 65 70 72 80 83 85 81 78
34 31 30 32 33 35 34 36 37 40 43 46 47 48 50 51 51 52 56 60 61 63 61 59 66 70 68 69 71 77 80 79 79
38 35 33 33 35 37 37 38 41 43 46 48 50 53 52 52 54 59 59 61 59 61 60 59 58 59 61 65 68 75 78 77 78
42 39 34 33 38 39 39 41 43 47 48 50 53 55 55 58 60 61 62 59 56 52 48 49 53 57 61 68 66 71 72 72 73
41 35 31 36 40 41 40 43 47 51 51 54 55 57 66 66 67 70 66 58 55 50 53 54 52 55 59 62 61 62 69 69 69
44 39 34 39 41 39 43 45 49 52 54 55 55 64 66 70 69 74 66 59 50 46 49 51 51 53 54 62 60 62 59 59 58
45 41 38 44 41 43 46 48 53 56 55 57 61 68 70 68 71 64 62 51 46 44 47 50 50 52 56 55 52 50 48 48 48
47 40 41 42 42 48 50 52 59 57 59 62 68 75 75 74 64 58 56 51 43 39 43 47 45 44 43 43 44 43 42 44 44